Wetterdaten: Sonntag, 26.03.2023
Datum Zeit Temp. Aussen Temp. o. S. Temp +5cm Feuchte Auss Luftdruck Regen Sonnenschein Regendauer Solar Windben Empfang
26.03.2023 00:00 8,3 C 7,2 C 3,3 C 92 % 1008,0 hPa 0,0 l/m 0 min 0 min 0 W/m 12,9 km/h (3 Bft) 97,87 %
26.03.2023 00:02 8,3 C 7,2 C 3,9 C 92 % 1008,0 hPa 0,0 l/m 0 min 0 min 0 W/m 6,4 km/h (2 Bft) 95,00 %
26.03.2023 00:04 8,3 C 7,2 C 3,9 C 92 % 1008,0 hPa 0,0 l/m 0 min 0 min 0 W/m 12,9 km/h (3 Bft) 95,74 %
26.03.2023 00:08 8,3 C 7,2 C 3,9 C 92 % 1008,1 hPa 0,0 l/m 0 min 0 min 0 W/m 6,4 km/h (2 Bft) 93,68 %
26.03.2023 00:10 8,3 C 7,2 C 3,9 C 92 % 1008,1 hPa 0,0 l/m 0 min 0 min 0 W/m 12,9 km/h (3 Bft) 95,74 %
26.03.2023 00:12 8,3 C 7,2 C 3,9 C 92 % 1008,1 hPa 0,0 l/m 0 min 0 min 0 W/m 12,9 km/h (3 Bft) 95,65 %
26.03.2023 00:14 8,3 C 7,2 C 3,9 C 92 % 1008,1 hPa 0,0 l/m 0 min 0 min 0 W/m 16,1 km/h (3 Bft) 93,75 %
26.03.2023 00:16 8,3 C 7,8 C 3,9 C 93 % 1008,2 hPa 0,0 l/m 0 min 0 min 0 W/m 16,1 km/h (3 Bft) 95,74 %
26.03.2023 00:18 8,3 C 7,8 C 3,9 C 93 % 1008,3 hPa 0,0 l/m 0 min 0 min 0 W/m 6,4 km/h (2 Bft) 95,74 %
26.03.2023 00:20 8,3 C 7,8 C 3,9 C 93 % 1008,2 hPa 0,0 l/m 0 min 0 min 0 W/m 12,9 km/h (3 Bft) 95,74 %
26.03.2023 00:22 8,3 C 7,8 C 3,9 C 93 % 1008,3 hPa 0,0 l/m 0 min 0 min 0 W/m 6,4 km/h (2 Bft) 95,92 %
26.03.2023 00:24 8,3 C 7,8 C 3,9 C 93 % 1008,2 hPa 0,0 l/m 0 min 0 min 0 W/m 12,9 km/h (3 Bft) 97,14 %
26.03.2023 00:26 8,3 C 7,8 C 3,9 C 92 % 1008,2 hPa 0,0 l/m 0 min 0 min 0 W/m 16,1 km/h (3 Bft) 97,87 %
26.03.2023 00:31 8,4 C 7,8 C 3,9 C 92 % 1008,2 hPa 0,0 l/m 0 min 0 min 0 W/m 12,9 km/h (3 Bft) 98,44 %
26.03.2023 00:32 8,4 C 7,8 C 3,9 C 92 % 1008,2 hPa 0,0 l/m 0 min 0 min 0 W/m 6,4 km/h (2 Bft) 90,91 %
26.03.2023 00:34 8,4 C 7,8 C 3,9 C 92 % 1008,2 hPa 0,0 l/m 0 min 0 min 0 W/m 12,9 km/h (3 Bft) 97,87 %
26.03.2023 00:36 8,4 C 7,8 C 3,9 C 92 % 1008,3 hPa 0,0 l/m 0 min 0 min 0 W/m 12,9 km/h (3 Bft) 95,74 %
26.03.2023 00:38 8,4 C 7,8 C 3,9 C 92 % 1008,2 hPa 0,0 l/m 0 min 0 min 0 W/m 12,9 km/h (3 Bft) 97,87 %
26.03.2023 00:40 8,4 C 7,8 C 3,9 C 92 % 1008,1 hPa 0,0 l/m 0 min 0 min 0 W/m 6,4 km/h (2 Bft) 97,87 %
26.03.2023 00:42 8,4 C 7,8 C 3,9 C 92 % 1008,1 hPa 0,0 l/m 0 min 0 min 0 W/m 12,9 km/h (3 Bft) 95,74 %
26.03.2023 00:44 8,4 C 7,8 C 3,9 C 91 % 1008,1 hPa 0,0 l/m 0 min 0 min 0 W/m 12,9 km/h (3 Bft) 96,43 %
26.03.2023 00:46 8,4 C 7,8 C 3,9 C 91 % 1008,2 hPa 0,0 l/m 0 min 0 min 0 W/m 9,7 km/h (2 Bft) 97,87 %
26.03.2023 00:48 8,4 C 7,8 C 3,9 C 91 % 1008,2 hPa 0,0 l/m 0 min 0 min 0 W/m 19,3 km/h (3 Bft) 95,74 %
26.03.2023 00:50 8,4 C 7,8 C 3,9 C 91 % 1008,1 hPa 0,0 l/m 0 min 0 min 0 W/m 16,1 km/h (3 Bft) 97,87 %
26.03.2023 00:52 8,4 C 7,8 C 3,9 C 91 % 1008,2 hPa 0,0 l/m 0 min 0 min 0 W/m 12,9 km/h (3 Bft) 97,83 %
26.03.2023 00:54 8,3 C 7,8 C 3,9 C 91 % 1008,2 hPa 0,0 l/m 0 min 0 min 0 W/m 16,1 km/h (3 Bft) 97,87 %
26.03.2023 00:56 8,3 C 7,8 C 3,9 C 91 % 1008,2 hPa 0,0 l/m 0 min 0 min 0 W/m 16,1 km/h (3 Bft) 97,87 %
26.03.2023 00:58 8,3 C 7,8 C 3,9 C 90 % 1008,2 hPa 0,0 l/m 0 min 0 min 0 W/m 16,1 km/h (3 Bft) 97,87 %
26.03.2023 01:00 8,3 C 7,8 C 3,9 C 90 % 1008,2 hPa 0,0 l/m 0 min 0 min 0 W/m 16,1 km/h (3 Bft) 97,92 %
26.03.2023 01:02 8,3 C 7,2 C 3,9 C 90 % 1008,2 hPa 0,0 l/m 0 min 0 min 0 W/m 16,1 km/h (3 Bft) 100,00 %
26.03.2023 01:04 8,3 C 7,2 C 3,9 C 90 % 1008,1 hPa 0,0 l/m 0 min 0 min 0 W/m 12,9 km/h (3 Bft) 97,87 %
26.03.2023 01:06 8,3 C 7,2 C 3,9 C 90 % 1008,2 hPa 0,0 l/m 0 min 0 min 0 W/m 9,7 km/h (2 Bft) 97,83 %
26.03.2023 01:08 8,3 C 7,2 C 3,9 C 90 % 1008,1 hPa 0,0 l/m 0 min 0 min 0 W/m 16,1 km/h (3 Bft) 95,74 %
26.03.2023 01:10 8,3 C 7,2 C 3,9 C 90 % 1008,2 hPa 0,0 l/m 0 min 0 min 0 W/m 12,9 km/h (3 Bft) 95,92 %
26.03.2023 01:12 8,2 C 7,2 C 3,9 C 90 % 1008,2 hPa 0,0 l/m 0 min 0 min 0 W/m 12,9 km/h (3 Bft) 97,87 %
26.03.2023 01:14 8,2 C 7,2 C 3,9 C 90 % 1008,2 hPa 0,0 l/m 0 min 0 min 0 W/m 9,7 km/h (2 Bft) 97,14 %
26.03.2023 01:16 8,2 C 7,2 C 3,9 C 90 % 1008,2 hPa 0,0 l/m 0 min 0 min 0 W/m 12,9 km/h (3 Bft) 97,87 %
26.03.2023 01:18 8,2 C 7,2 C 3,9 C 90 % 1008,2 hPa 0,0 l/m 0 min 0 min 0 W/m 9,7 km/h (2 Bft) 93,62 %
26.03.2023 01:20 8,2 C 7,2 C 3,9 C 90 % 1008,1 hPa 0,0 l/m 0 min 0 min 0 W/m 6,4 km/h (2 Bft) 97,87 %
26.03.2023 01:22 8,2 C 7,2 C 3,9 C 90 % 1008,2 hPa 0,0 l/m 0 min 0 min 0 W/m 9,7 km/h (2 Bft) 97,87 %
26.03.2023 01:24 8,2 C 7,2 C 3,9 C 90 % 1008,2 hPa 0,0 l/m 0 min 0 min 0 W/m 12,9 km/h (3 Bft) 97,83 %
26.03.2023 01:26 8,1 C 7,2 C 3,9 C 90 % 1008,2 hPa 0,0 l/m 0 min 0 min 0 W/m 16,1 km/h (3 Bft) 97,87 %
26.03.2023 01:28 8,1 C 7,2 C 3,9 C 90 % 1008,2 hPa 0,0 l/m 0 min 0 min 0 W/m 9,7 km/h (2 Bft) 97,87 %
26.03.2023 01:30 8,1 C 7,2 C 3,9 C 90 % 1008,1 hPa 0,0 l/m 0 min 0 min 0 W/m 16,1 km/h (3 Bft) 95,74 %
26.03.2023 01:32 8,1 C 7,2 C 3,9 C 90 % 1008,2 hPa 0,0 l/m 0 min 0 min 0 W/m 12,9 km/h (3 Bft) 97,87 %
26.03.2023 01:34 8,1 C 7,2 C 3,9 C 90 % 1008,1 hPa 0,0 l/m 0 min 0 min 0 W/m 16,1 km/h (3 Bft) 95,74 %
26.03.2023 01:36 8,1 C 7,2 C 3,9 C 90 % 1008,1 hPa 0,0 l/m 0 min 0 min 0 W/m 12,9 km/h (3 Bft) 97,87 %
26.03.2023 01:38 8,1 C 7,2 C 3,9 C 90 % 1008,1 hPa 0,0 l/m 0 min 0 min 0 W/m 6,4 km/h (2 Bft) 94,55 %
26.03.2023 01:40 8,1 C 7,2 C 3,9 C 90 % 1008,1 hPa 0,0 l/m 0 min 0 min 0 W/m 9,7 km/h (2 Bft) 91,49 %
26.03.2023 01:42 8,0 C 7,2 C 3,9 C 90 % 1008,1 hPa 0,0 l/m 0 min 0 min 0 W/m 6,4 km/h (2 Bft) 97,87 %
26.03.2023 01:44 8,0 C 7,2 C 3,9 C 90 % 1008,1 hPa 0,0 l/m 0 min 0 min 0 W/m 12,9 km/h (3 Bft) 97,87 %
26.03.2023 01:46 8,0 C 7,2 C 3,9 C 90 % 1008,0 hPa 0,0 l/m 0 min 0 min 0 W/m 6,4 km/h (2 Bft) 95,74 %
26.03.2023 01:48 8,0 C 7,2 C 3,9 C 90 % 1008,0 hPa 0,0 l/m 0 min 0 min 0 W/m 6,4 km/h (2 Bft) 97,83 %
26.03.2023 01:50 8,0 C 7,2 C 3,9 C 90 % 1008,0 hPa 0,0 l/m 0 min 0 min 0 W/m 9,7 km/h (2 Bft) 97,87 %
26.03.2023 01:52 8,0 C 7,2 C 4,4 C 90 % 1008,0 hPa 0,0 l/m 0 min 0 min 0 W/m 9,7 km/h (2 Bft) 93,88 %
26.03.2023 01:54 8,1 C 7,2 C 4,4 C 90 % 1008,0 hPa 0,0 l/m 0 min 0 min 0 W/m 9,7 km/h (2 Bft) 97,87 %
26.03.2023 01:56 8,1 C 7,2 C 4,4 C 90 % 1008,0 hPa 0,0 l/m 0 min 0 min 0 W/m 19,3 km/h (3 Bft) 97,87 %
26.03.2023 01:58 8,1 C 7,2 C 4,4 C 90 % 1008,0 hPa 0,0 l/m 0 min 0 min 0 W/m 19,3 km/h (3 Bft) 97,87 %
26.03.2023 03:00 8,1 C 7,2 C 4,4 C 90 % 1008,0 hPa 0,0 l/m 0 min 0 min 0 W/m 19,3 km/h (3 Bft) 95,65 %
26.03.2023 03:02 8,1 C 7,8 C 4,4 C 90 % 1008,0 hPa 0,0 l/m 0 min 0 min 0 W/m 22,5 km/h (4 Bft) 95,74 %
26.03.2023 03:04 8,1 C 7,8 C 4,4 C 90 % 1007,9 hPa 0,0 l/m 0 min 0 min 0 W/m 16,1 km/h (3 Bft) 97,87 %
26.03.2023 03:06 8,1 C 7,2 C 4,4 C 90 % 1007,9 hPa 0,0 l/m 0 min 0 min 0 W/m 12,9 km/h (3 Bft) 97,87 %
26.03.2023 03:08 8,2 C 7,8 C 4,4 C 90 % 1007,9 hPa 0,0 l/m 0 min 0 min 0 W/m 19,3 km/h (3 Bft) 100,00 %
26.03.2023 03:10 8,2 C 7,8 C 4,4 C 90 % 1007,8 hPa 0,0 l/m 0 min 0 min 0 W/m 16,1 km/h (3 Bft) 100,00 %
26.03.2023 03:12 8,2 C 7,8 C 4,4 C 89 % 1007,8 hPa 0,0 l/m 0 min 0 min 0 W/m 22,5 km/h (4 Bft) 100,00 %
26.03.2023 03:14 8,2 C 7,2 C 4,4 C 89 % 1007,8 hPa 0,0 l/m 0 min 0 min 0 W/m 16,1 km/h (3 Bft) 100,00 %
26.03.2023 03:16 8,2 C 7,2 C 4,4 C 89 % 1007,8 hPa 0,0 l/m 0 min 0 min 0 W/m 12,9 km/h (3 Bft) 100,00 %
26.03.2023 03:18 8,2 C 7,2 C 4,4 C 89 % 1007,8 hPa 0,0 l/m 0 min 0 min 0 W/m 12,9 km/h (3 Bft) 100,00 %
26.03.2023 03:20 8,2 C 7,2 C 4,4 C 89 % 1007,7 hPa 0,0 l/m 0 min 0 min 0 W/m 19,3 km/h (3 Bft) 100,00 %
26.03.2023 03:22 8,2 C 7,2 C 4,4 C 89 % 1007,6 hPa 0,0 l/m 0 min 0 min 0 W/m 6,4 km/h (2 Bft) 100,00 %
26.03.2023 03:24 8,2 C 7,2 C 4,4 C 89 % 1007,6 hPa 0,0 l/m 0 min 0 min 0 W/m 9,7 km/h (2 Bft) 100,00 %
26.03.2023 03:26 8,2 C 7,2 C 4,4 C 90 % 1007,6 hPa 0,0 l/m 0 min 0 min 0 W/m 6,4 km/h (2 Bft) 100,00 %
26.03.2023 03:28 8,2 C 7,2 C 3,9 C 90 % 1007,6 hPa 0,0 l/m 0 min 0 min 0 W/m 6,4 km/h (2 Bft) 100,00 %
26.03.2023 03:30 8,1 C 7,2 C 3,9 C 90 % 1007,6 hPa 0,0 l/m 0 min 0 min 0 W/m 6,4 km/h (2 Bft) 100,00 %
26.03.2023 03:32 8,1 C 7,2 C 3,9 C 90 % 1007,6 hPa 0,0 l/m 0 min 0 min 0 W/m 12,9 km/h (3 Bft) 97,87 %
26.03.2023 03:34 8,1 C 7,2 C 3,9 C 90 % 1007,5 hPa 0,0 l/m 0 min 0 min 0 W/m 6,4 km/h (2 Bft) 100,00 %
26.03.2023 03:36 8,1 C 7,2 C 3,9 C 90 % 1007,4 hPa 0,0 l/m 0 min 0 min 0 W/m 6,4 km/h (2 Bft) 100,00 %
26.03.2023 03:38 8,1 C 6,7 C 3,9 C 90 % 1007,5 hPa 0,0 l/m 0 min 0 min 0 W/m 3,2 km/h (1 Bft) 100,00 %
26.03.2023 03:40 8,0 C 6,7 C 3,9 C 90 % 1007,4 hPa 0,0 l/m 0 min 0 min 0 W/m 6,4 km/h (2 Bft) 100,00 %
26.03.2023 03:42 8,0 C 6,7 C 3,9 C 90 % 1007,4 hPa 0,0 l/m 0 min 0 min 0 W/m 3,2 km/h (1 Bft) 100,00 %
26.03.2023 03:44 7,9 C 6,7 C 3,9 C 90 % 1007,3 hPa 0,0 l/m 0 min 0 min 0 W/m 3,2 km/h (1 Bft) 97,87 %
26.03.2023 03:46 7,9 C 6,7 C 3,9 C 90 % 1007,3 hPa 0,0 l/m 0 min 0 min 0 W/m 3,2 km/h (1 Bft) 97,87 %
26.03.2023 03:48 7,9 C 6,7 C 3,3 C 90 % 1007,3 hPa 0,0 l/m 0 min 0 min 0 W/m 0,0 km/h (0 Bft) 100,00 %
26.03.2023 03:50 7,8 C 6,7 C 3,3 C 90 % 1007,2 hPa 0,0 l/m 0 min 0 min 0 W/m 6,4 km/h (2 Bft) 97,87 %
26.03.2023 03:52 7,8 C 6,7 C 3,3 C 90 % 1007,2 hPa 0,0 l/m 0 min 0 min 0 W/m 3,2 km/h (1 Bft) 100,00 %
26.03.2023 03:54 7,8 C 6,7 C 3,3 C 90 % 1007,1 hPa 0,0 l/m 0 min 0 min 0 W/m 6,4 km/h (2 Bft) 100,00 %
26.03.2023 03:56 7,8 C 6,7 C 3,3 C 90 % 1007,2 hPa 0,0 l/m 0 min 0 min 0 W/m 3,2 km/h (1 Bft) 95,74 %
26.03.2023 03:58 7,8 C 6,1 C 3,3 C 90 % 1007,2 hPa 0,0 l/m 0 min 0 min 0 W/m 3,2 km/h (1 Bft) 100,00 %
26.03.2023 04:00 7,7 C 6,1 C 3,3 C 90 % 1007,1 hPa 0,0 l/m 0 min 0 min 0 W/m 0,0 km/h (0 Bft) 97,87 %
26.03.2023 04:02 7,7 C 6,1 C 3,3 C 90 % 1007,1 hPa 0,0 l/m 0 min 0 min 0 W/m 0,0 km/h (0 Bft) 100,00 %
26.03.2023 04:04 7,7 C 6,1 C 3,3 C 90 % 1007,1 hPa 0,0 l/m 0 min 0 min 0 W/m 3,2 km/h (1 Bft) 100,00 %
26.03.2023 04:06 7,6 C 6,1 C 3,3 C 90 % 1007,0 hPa 0,0 l/m 0 min 0 min 0 W/m 3,2 km/h (1 Bft) 95,65 %
26.03.2023 04:08 7,6 C 6,1 C 3,3 C 90 % 1007,1 hPa 0,0 l/m 0 min 0 min 0 W/m 3,2 km/h (1 Bft) 97,87 %
26.03.2023 04:10 7,6 C 6,1 C 3,3 C 90 % 1007,1 hPa 0,0 l/m 0 min 0 min 0 W/m 9,7 km/h (2 Bft) 95,00 %
26.03.2023 04:12 7,6 C 6,1 C 3,3 C 90 % 1007,1 hPa 0,0 l/m 0 min 0 min 0 W/m 3,2 km/h (1 Bft) 100,00 %
26.03.2023 04:14 7,5 C 6,1 C 3,3 C 90 % 1007,0 hPa 0,0 l/m 0 min 0 min 0 W/m 6,4 km/h (2 Bft) 100,00 %
26.03.2023 04:16 7,5 C 6,1 C 3,3 C 91 % 1007,0 hPa 0,0 l/m 0 min 0 min 0 W/m 3,2 km/h (1 Bft) 97,87 %
26.03.2023 04:18 7,4 C 6,1 C 3,3 C 91 % 1007,0 hPa 0,0 l/m 0 min 0 min 0 W/m 6,4 km/h (2 Bft) 95,74 %
26.03.2023 04:20 7,4 C 6,1 C 3,3 C 91 % 1007,0 hPa 0,0 l/m 0 min 0 min 0 W/m 3,2 km/h (1 Bft) 95,92 %
26.03.2023 04:22 7,4 C 6,1 C 3,3 C 91 % 1007,0 hPa 0,0 l/m 0 min 0 min 0 W/m 9,7 km/h (2 Bft) 95,74 %
26.03.2023 04:24 7,4 C 6,1 C 3,3 C 91 % 1006,9 hPa 0,0 l/m 0 min 0 min 0 W/m 6,4 km/h (2 Bft) 95,74 %
26.03.2023 04:26 7,4 C 6,1 C 3,3 C 91 % 1006,9 hPa 0,0 l/m 0 min 0 min 0 W/m 6,4 km/h (2 Bft) 95,74 %
26.03.2023 04:28 7,4 C 6,1 C 3,3 C 91 % 1006,9 hPa 0,0 l/m 0 min 0 min 0 W/m 0,0 km/h (0 Bft) 95,74 %
26.03.2023 04:30 7,3 C 6,1 C 3,3 C 91 % 1006,8 hPa 0,0 l/m 0 min 0 min 0 W/m 3,2 km/h (1 Bft) 93,62 %
26.03.2023 04:32 7,3 C 6,1 C 3,3 C 91 % 1006,8 hPa 0,0 l/m 0 min 0 min 0 W/m 3,2 km/h (1 Bft) 92,11 %
26.03.2023 04:34 7,3 C 6,1 C 3,3 C 91 % 1006,7 hPa 0,0 l/m 0 min 0 min 0 W/m 6,4 km/h (2 Bft) 93,62 %
26.03.2023 04:36 7,3 C 6,1 C 3,3 C 91 % 1006,7 hPa 0,0 l/m 0 min 0 min 0 W/m 9,7 km/h (2 Bft) 91,30 %
26.03.2023 04:38 7,2 C 6,1 C 3,3 C 91 % 1006,6 hPa 0,0 l/m 0 min 0 min 0 W/m 3,2 km/h (1 Bft) 91,49 %
26.03.2023 04:40 7,2 C 6,1 C 3,3 C 91 % 1006,5 hPa 0,0 l/m 0 min 0 min 0 W/m 3,2 km/h (1 Bft) 93,62 %
26.03.2023 04:42 7,2 C 6,1 C 3,3 C 91 % 1006,6 hPa 0,0 l/m 0 min 0 min 0 W/m 3,2 km/h (1 Bft) 95,74 %
26.03.2023 04:47 7,1 C 6,1 C 3,3 C 91 % 1006,4 hPa 0,0 l/m 0 min 0 min 0 W/m 6,4 km/h (2 Bft) 97,30 %
26.03.2023 04:48 7,2 C 6,1 C 3,3 C 91 % 1006,4 hPa 0,0 l/m 0 min 0 min 0 W/m 3,2 km/h (1 Bft) 100,00 %
26.03.2023 04:50 7,1 C 6,1 C 3,3 C 91 % 1006,3 hPa 0,0 l/m 0 min 0 min 0 W/m 3,2 km/h (1 Bft) 96,00 %
26.03.2023 04:52 7,1 C 6,1 C 3,3 C 91 % 1006,3 hPa 0,0 l/m 0 min 0 min 0 W/m 3,2 km/h (1 Bft) 95,74 %
26.03.2023 04:54 7,1 C 6,1 C 3,3 C 91 % 1006,2 hPa 0,0 l/m 0 min 0 min 0 W/m 6,4 km/h (2 Bft) 95,74 %
26.03.2023 04:56 7,1 C 6,1 C 3,3 C 91 % 1006,2 hPa 0,0 l/m 0 min 0 min 0 W/m 6,4 km/h (2 Bft) 100,00 %
26.03.2023 04:58 7,1 C 6,1 C 3,3 C 91 % 1006,2 hPa 0,0 l/m 0 min 0 min 0 W/m 3,2 km/h (1 Bft) 97,22 %
26.03.2023 05:00 7,1 C 6,1 C 3,3 C 91 % 1006,2 hPa 0,0 l/m 0 min 0 min 0 W/m 6,4 km/h (2 Bft) 96,15 %
26.03.2023 05:02 7,1 C 6,1 C 3,3 C 91 % 1006,2 hPa 0,0 l/m 0 min 0 min 0 W/m 3,2 km/h (1 Bft) 97,83 %
26.03.2023 05:04 7,1 C 6,1 C 3,3 C 91 % 1006,2 hPa 0,0 l/m 0 min 0 min 0 W/m 3,2 km/h (1 Bft) 97,87 %
26.03.2023 05:06 7,1 C 6,1 C 3,3 C 91 % 1006,1 hPa 0,0 l/m 0 min 0 min 0 W/m 3,2 km/h (1 Bft) 97,87 %
26.03.2023 05:08 7,1 C 6,1 C 3,3 C 91 % 1006,0 hPa 0,0 l/m 0 min 0 min 0 W/m 3,2 km/h (1 Bft) 97,87 %
26.03.2023 05:10 7,1 C 6,1 C 3,3 C 91 % 1006,0 hPa 0,0 l/m 0 min 0 min 0 W/m 3,2 km/h (1 Bft) 97,87 %
26.03.2023 05:12 7,1 C 6,1 C 3,3 C 91 % 1006,0 hPa 0,0 l/m 0 min 0 min 0 W/m 3,2 km/h (1 Bft) 95,74 %
26.03.2023 05:14 7,0 C 6,1 C 3,3 C 91 % 1005,9 hPa 0,0 l/m 0 min 0 min 0 W/m 0,0 km/h (0 Bft) 97,87 %
26.03.2023 05:16 7,1 C 6,1 C 3,3 C 91 % 1005,9 hPa 0,0 l/m 0 min 0 min 0 W/m 6,4 km/h (2 Bft) 97,83 %
26.03.2023 05:18 7,0 C 6,1 C 3,3 C 91 % 1005,9 hPa 0,0 l/m 0 min 0 min 0 W/m 6,4 km/h (2 Bft) 97,96 %
26.03.2023 05:20 7,0 C 6,1 C 3,3 C 91 % 1005,9 hPa 0,0 l/m 0 min 0 min 0 W/m 6,4 km/h (2 Bft) 97,87 %
26.03.2023 05:22 7,0 C 6,1 C 3,3 C 92 % 1005,9 hPa 0,0 l/m 0 min 0 min 0 W/m 3,2 km/h (1 Bft) 95,74 %
26.03.2023 05:24 7,0 C 6,1 C 3,3 C 92 % 1005,8 hPa 0,0 l/m 0 min 0 min 0 W/m 3,2 km/h (1 Bft) 97,87 %
26.03.2023 05:26 7,1 C 6,7 C 3,3 C 92 % 1005,8 hPa 0,0 l/m 0 min 0 min 0 W/m 6,4 km/h (2 Bft) 93,62 %
26.03.2023 05:28 7,1 C 6,7 C 3,3 C 92 % 1005,8 hPa 0,0 l/m 0 min 0 min 0 W/m 6,4 km/h (2 Bft) 97,87 %
26.03.2023 05:30 7,1 C 6,7 C 3,3 C 92 % 1005,8 hPa 0,0 l/m 0 min 0 min 0 W/m 9,7 km/h (2 Bft) 95,65 %
26.03.2023 05:32 7,1 C 6,7 C 3,3 C 92 % 1005,7 hPa 0,0 l/m 0 min 0 min 0 W/m 6,4 km/h (2 Bft) 100,00 %
26.03.2023 05:34 7,1 C 6,7 C 3,3 C 92 % 1005,7 hPa 0,0 l/m 0 min 0 min 0 W/m 6,4 km/h (2 Bft) 97,87 %
26.03.2023 05:36 7,1 C 6,7 C 3,3 C 92 % 1005,7 hPa 0,0 l/m 0 min 0 min 0 W/m 3,2 km/h (1 Bft) 97,87 %
26.03.2023 05:38 7,1 C 6,7 C 3,3 C 92 % 1005,7 hPa 0,0 l/m 0 min 0 min 0 W/m 3,2 km/h (1 Bft) 97,87 %
26.03.2023 05:40 7,1 C 6,7 C 3,3 C 92 % 1005,7 hPa 0,0 l/m 0 min 0 min 0 W/m 3,2 km/h (1 Bft) 100,00 %
26.03.2023 05:42 7,1 C 6,7 C 3,3 C 92 % 1005,7 hPa 0,0 l/m 0 min 2 min 0 W/m 6,4 km/h (2 Bft) 100,00 %
26.03.2023 05:44 7,1 C 6,7 C 3,3 C 92 % 1005,7 hPa 0,0 l/m 0 min 2 min 0 W/m 9,7 km/h (2 Bft) 97,87 %
26.03.2023 05:46 7,2 C 6,7 C 3,3 C 92 % 1005,7 hPa 0,0 l/m 0 min 2 min 0 W/m 6,4 km/h (2 Bft) 100,00 %
26.03.2023 05:48 7,2 C 6,7 C 3,3 C 92 % 1005,7 hPa 0,0 l/m 0 min 2 min 0 W/m 9,7 km/h (2 Bft) 100,00 %
26.03.2023 05:50 7,2 C 6,7 C 3,3 C 92 % 1005,6 hPa 0,0 l/m 0 min 2 min 0 W/m 6,4 km/h (2 Bft) 100,00 %
26.03.2023 05:52 7,2 C 6,7 C 3,3 C 92 % 1005,6 hPa 0,0 l/m 0 min 2 min 0 W/m 16,1 km/h (3 Bft) 100,00 %
26.03.2023 05:54 7,2 C 6,7 C 3,3 C 92 % 1005,6 hPa 0,0 l/m 0 min 2 min 0 W/m 6,4 km/h (2 Bft) 100,00 %
26.03.2023 05:56 7,3 C 6,7 C 3,3 C 92 % 1005,6 hPa 0,0 l/m 0 min 2 min 0 W/m 6,4 km/h (2 Bft) 100,00 %
26.03.2023 05:58 7,3 C 6,7 C 3,3 C 92 % 1005,5 hPa 0,0 l/m 0 min 2 min 0 W/m 6,4 km/h (2 Bft) 100,00 %
26.03.2023 06:00 7,3 C 6,7 C 3,3 C 92 % 1005,6 hPa 0,0 l/m 0 min 2 min 0 W/m 3,2 km/h (1 Bft) 100,00 %
26.03.2023 06:02 7,3 C 6,7 C 3,3 C 92 % 1005,5 hPa 0,0 l/m 0 min 2 min 0 W/m 6,4 km/h (2 Bft) 100,00 %
26.03.2023 06:04 7,3 C 6,7 C 3,3 C 92 % 1005,5 hPa 0,0 l/m 0 min 2 min 0 W/m 6,4 km/h (2 Bft) 97,87 %
26.03.2023 06:07 7,3 C 6,7 C 3,3 C 92 % 1005,4 hPa 0,0 l/m 0 min 3 min 0 W/m 6,4 km/h (2 Bft) 98,70 %
26.03.2023 06:08 7,3 C 6,7 C 3,3 C 92 % 1005,4 hPa 0,2 l/m 0 min 1 min 0 W/m 6,4 km/h (2 Bft) 91,67 %
26.03.2023 06:12 7,4 C 6,7 C 3,3 C 92 % 1005,4 hPa 0,0 l/m 0 min 4 min 0 W/m 6,4 km/h (2 Bft) 97,96 %
26.03.2023 06:14 7,4 C 6,7 C 3,3 C 92 % 1005,4 hPa 0,0 l/m 0 min 2 min 0 W/m 3,2 km/h (1 Bft) 96,49 %
26.03.2023 06:16 7,4 C 6,7 C 3,3 C 92 % 1005,3 hPa 0,0 l/m 0 min 2 min 0 W/m 3,2 km/h (1 Bft) 97,87 %
26.03.2023 06:18 7,4 C 6,7 C 3,3 C 92 % 1005,2 hPa 0,0 l/m 0 min 2 min 0 W/m 3,2 km/h (1 Bft) 97,87 %
26.03.2023 06:20 7,4 C 6,7 C 3,3 C 92 % 1005,3 hPa 0,0 l/m 0 min 2 min 0 W/m 3,2 km/h (1 Bft) 97,87 %
26.03.2023 06:22 7,4 C 6,7 C 3,3 C 92 % 1005,2 hPa 0,0 l/m 0 min 2 min 0 W/m 3,2 km/h (1 Bft) 91,67 %
26.03.2023 06:24 7,4 C 6,7 C 3,3 C 92 % 1005,2 hPa 0,0 l/m 0 min 2 min 0 W/m 0,0 km/h (0 Bft) 94,44 %
26.03.2023 06:26 7,4 C 6,7 C 3,3 C 93 % 1005,1 hPa 0,0 l/m 0 min 2 min 0 W/m 3,2 km/h (1 Bft) 95,74 %
26.03.2023 06:28 7,4 C 6,7 C 3,3 C 93 % 1005,1 hPa 0,0 l/m 0 min 0 min 0 W/m 0,0 km/h (0 Bft) 95,74 %
26.03.2023 06:30 7,4 C 6,7 C 3,3 C 93 % 1005,0 hPa 0,0 l/m 0 min 0 min 0 W/m 0,0 km/h (0 Bft) 95,74 %
26.03.2023 06:32 7,4 C 6,7 C 3,3 C 93 % 1005,0 hPa 0,0 l/m 0 min 0 min 0 W/m 0,0 km/h (0 Bft) 95,74 %
26.03.2023 06:34 7,4 C 6,7 C 3,3 C 93 % 1004,9 hPa 0,0 l/m 0 min 0 min 0 W/m 0,0 km/h (0 Bft) 95,74 %
26.03.2023 06:36 7,4 C 6,7 C 3,3 C 93 % 1004,9 hPa 0,0 l/m 0 min 0 min 0 W/m 0,0 km/h (0 Bft) 95,74 %
26.03.2023 06:38 7,4 C 6,7 C 3,3 C 93 % 1004,8 hPa 0,0 l/m 0 min 0 min 0 W/m 0,0 km/h (0 Bft) 97,83 %
26.03.2023 06:40 7,4 C 6,7 C 2,8 C 93 % 1004,8 hPa 0,0 l/m 0 min 0 min 0 W/m 0,0 km/h (0 Bft) 97,87 %
26.03.2023 06:42 7,4 C 6,7 C 2,8 C 93 % 1004,7 hPa 0,0 l/m 0 min 0 min 0 W/m 0,0 km/h (0 Bft) 95,74 %
26.03.2023 06:44 7,4 C 6,7 C 2,8 C 93 % 1004,7 hPa 0,0 l/m 0 min 0 min 0 W/m 0,0 km/h (0 Bft) 97,87 %
26.03.2023 06:46 7,4 C 6,1 C 2,8 C 93 % 1004,7 hPa 0,0 l/m 0 min 0 min 0 W/m 0,0 km/h (0 Bft) 97,87 %
26.03.2023 06:48 7,4 C 6,1 C 2,8 C 93 % 1004,7 hPa 0,0 l/m 0 min 0 min 0 W/m 0,0 km/h (0 Bft) 95,74 %
26.03.2023 06:50 7,4 C 6,1 C 2,8 C 93 % 1004,7 hPa 0,0 l/m 0 min 0 min 0 W/m 0,0 km/h (0 Bft) 95,74 %
26.03.2023 06:52 7,4 C 6,1 C 2,8 C 93 % 1004,6 hPa 0,0 l/m 0 min 0 min 0 W/m 0,0 km/h (0 Bft) 97,83 %
26.03.2023 06:54 7,4 C 6,1 C 2,8 C 93 % 1004,6 hPa 0,0 l/m 0 min 0 min 0 W/m 0,0 km/h (0 Bft) 95,74 %
26.03.2023 06:56 7,4 C 6,1 C 2,8 C 93 % 1004,6 hPa 0,0 l/m 0 min 0 min 0 W/m 0,0 km/h (0 Bft) 97,87 %
26.03.2023 06:58 7,4 C 6,1 C 2,8 C 93 % 1004,5 hPa 0,0 l/m 0 min 0 min 0 W/m 0,0 km/h (0 Bft) 97,87 %
26.03.2023 07:00 7,4 C 6,1 C 2,8 C 93 % 1004,5 hPa 0,0 l/m 0 min 0 min 0 W/m 0,0 km/h (0 Bft) 95,74 %
26.03.2023 07:02 7,3 C 6,1 C 2,8 C 93 % 1004,5 hPa 0,0 l/m 0 min 0 min 0 W/m 0,0 km/h (0 Bft) 97,87 %
26.03.2023 07:04 7,3 C 6,1 C 2,8 C 93 % 1004,5 hPa 0,0 l/m 0 min 0 min 0 W/m 0,0 km/h (0 Bft) 95,74 %
26.03.2023 07:06 7,3 C 6,1 C 2,8 C 93 % 1004,5 hPa 0,0 l/m 0 min 0 min 0 W/m 0,0 km/h (0 Bft) 97,83 %
26.03.2023 07:08 7,3 C 6,1 C 2,8 C 93 % 1004,5 hPa 0,0 l/m 0 min 0 min 0 W/m 3,2 km/h (1 Bft) 97,87 %
26.03.2023 07:10 7,3 C 6,1 C 2,8 C 93 % 1004,5 hPa 0,0 l/m 0 min 0 min 0 W/m 0,0 km/h (0 Bft) 100,00 %
26.03.2023 07:12 7,3 C 6,1 C 2,8 C 93 % 1004,5 hPa 0,0 l/m 0 min 0 min 0 W/m 0,0 km/h (0 Bft) 95,74 %
26.03.2023 07:14 7,3 C 6,1 C 2,8 C 93 % 1004,5 hPa 0,0 l/m 0 min 0 min 0 W/m 0,0 km/h (0 Bft) 100,00 %
26.03.2023 07:16 7,3 C 6,1 C 2,8 C 93 % 1004,5 hPa 0,0 l/m 0 min 0 min 0 W/m 0,0 km/h (0 Bft) 100,00 %
26.03.2023 07:18 7,3 C 6,1 C 2,8 C 93 % 1004,5 hPa 0,0 l/m 0 min 0 min 0 W/m 0,0 km/h (0 Bft) 95,74 %
26.03.2023 07:20 7,3 C 6,1 C 2,8 C 93 % 1004,4 hPa 0,0 l/m 0 min 0 min 0 W/m 3,2 km/h (1 Bft) 100,00 %
26.03.2023 07:22 7,3 C 6,1 C 2,8 C 93 % 1004,4 hPa 0,0 l/m 0 min 0 min 0 W/m 3,2 km/h (1 Bft) 100,00 %
26.03.2023 07:24 7,3 C 6,1 C 2,8 C 93 % 1004,4 hPa 0,0 l/m 0 min 0 min 0 W/m 3,2 km/h (1 Bft) 95,74 %
26.03.2023 07:26 7,3 C 6,1 C 3,3 C 93 % 1004,4 hPa 0,0 l/m 0 min 0 min 0 W/m 3,2 km/h (1 Bft) 100,00 %
26.03.2023 07:28 7,2 C 6,1 C 3,3 C 93 % 1004,3 hPa 0,0 l/m 0 min 0 min 0 W/m 3,2 km/h (1 Bft) 100,00 %
26.03.2023 07:30 7,3 C 6,7 C 3,3 C 93 % 1004,3 hPa 0,0 l/m 0 min 0 min 0 W/m 0,0 km/h (0 Bft) 97,87 %
26.03.2023 07:32 7,3 C 6,7 C 3,3 C 93 % 1004,3 hPa 0,0 l/m 0 min 2 min 0 W/m 3,2 km/h (1 Bft) 100,00 %
26.03.2023 07:34 7,2 C 6,7 C 3,3 C 93 % 1004,2 hPa 0,0 l/m 0 min 2 min 0 W/m 0,0 km/h (0 Bft) 100,00 %
26.03.2023 07:36 7,2 C 6,7 C 3,3 C 93 % 1004,1 hPa 0,2 l/m 0 min 2 min 0 W/m 0,0 km/h (0 Bft) 97,87 %
26.03.2023 07:38 7,2 C 6,1 C 3,3 C 93 % 1004,1 hPa 0,0 l/m 0 min 2 min 0 W/m 0,0 km/h (0 Bft) 100,00 %
26.03.2023 07:40 7,2 C 6,1 C 3,3 C 93 % 1004,1 hPa 0,0 l/m 0 min 0 min 0 W/m 0,0 km/h (0 Bft) 100,00 %
26.03.2023 07:42 7,3 C 6,1 C 3,3 C 93 % 1004,1 hPa 0,0 l/m 0 min 2 min 0 W/m 0,0 km/h (0 Bft) 97,87 %
26.03.2023 07:44 7,2 C 6,1 C 3,3 C 93 % 1004,0 hPa 0,0 l/m 0 min 2 min 0 W/m 0,0 km/h (0 Bft) 97,87 %
26.03.2023 07:46 7,2 C 6,1 C 3,3 C 93 % 1004,0 hPa 0,0 l/m 0 min 2 min 0 W/m 0,0 km/h (0 Bft) 100,00 %
26.03.2023 07:48 7,2 C 6,1 C 3,3 C 94 % 1004,0 hPa 0,0 l/m 0 min 2 min 0 W/m 0,0 km/h (0 Bft) 95,65 %
26.03.2023 07:50 7,2 C 6,1 C 3,3 C 94 % 1003,9 hPa 0,0 l/m 0 min 0 min 0 W/m 0,0 km/h (0 Bft) 97,87 %
26.03.2023 07:52 7,2 C 6,1 C 3,3 C 94 % 1003,9 hPa 0,0 l/m 0 min 0 min 0 W/m 0,0 km/h (0 Bft) 97,87 %
26.03.2023 07:54 7,2 C 6,1 C 3,3 C 94 % 1003,9 hPa 0,0 l/m 0 min 0 min 0 W/m 0,0 km/h (0 Bft) 91,49 %
26.03.2023 07:56 7,2 C 6,7 C 3,3 C 94 % 1003,9 hPa 0,0 l/m 0 min 0 min 3 W/m 0,0 km/h (0 Bft) 93,62 %
26.03.2023 07:58 7,2 C 6,7 C 3,3 C 94 % 1003,8 hPa 0,0 l/m 0 min 0 min 5 W/m 0,0 km/h (0 Bft) 95,74 %
26.03.2023 08:00 7,2 C 6,7 C 3,3 C 94 % 1003,8 hPa 0,0 l/m 0 min 0 min 6 W/m 0,0 km/h (0 Bft) 95,74 %
26.03.2023 08:02 7,2 C 6,7 C 3,3 C 94 % 1003,8 hPa 0,0 l/m 0 min 0 min 7 W/m 0,0 km/h (0 Bft) 95,65 %
26.03.2023 08:04 7,3 C 6,7 C 3,3 C 94 % 1003,7 hPa 0,0 l/m 0 min 0 min 8 W/m 0,0 km/h (0 Bft) 93,62 %
26.03.2023 08:06 7,3 C 6,7 C 3,3 C 94 % 1003,6 hPa 0,0 l/m 0 min 0 min 10 W/m 0,0 km/h (0 Bft) 93,62 %
26.03.2023 08:08 7,3 C 6,7 C 3,3 C 94 % 1003,6 hPa 0,0 l/m 0 min 2 min 11 W/m 0,0 km/h (0 Bft) 93,62 %
26.03.2023 08:10 7,3 C 6,7 C 3,3 C 94 % 1003,6 hPa 0,0 l/m 0 min 2 min 11 W/m 0,0 km/h (0 Bft) 93,62 %
26.03.2023 08:12 7,3 C 6,7 C 3,3 C 94 % 1003,5 hPa 0,0 l/m 0 min 2 min 11 W/m 0,0 km/h (0 Bft) 93,62 %
26.03.2023 08:14 7,3 C 6,7 C 3,3 C 94 % 1003,5 hPa 0,0 l/m 0 min 2 min 12 W/m 0,0 km/h (0 Bft) 93,62 %
26.03.2023 08:16 7,3 C 6,7 C 3,3 C 94 % 1003,5 hPa 0,0 l/m 0 min 2 min 12 W/m 0,0 km/h (0 Bft) 93,48 %
26.03.2023 08:18 7,3 C 6,7 C 3,3 C 94 % 1003,4 hPa 0,0 l/m 0 min 2 min 12 W/m 0,0 km/h (0 Bft) 93,62 %
26.03.2023 08:20 7,3 C 6,7 C 3,3 C 94 % 1003,4 hPa 0,0 l/m 0 min 0 min 12 W/m 0,0 km/h (0 Bft) 95,74 %
26.03.2023 08:22 7,3 C 6,7 C 3,3 C 94 % 1003,4 hPa 0,0 l/m 0 min 0 min 13 W/m 0,0 km/h (0 Bft) 93,62 %
26.03.2023 08:24 7,3 C 6,7 C 3,3 C 94 % 1003,4 hPa 0,0 l/m 0 min 0 min 14 W/m 0,0 km/h (0 Bft) 95,74 %
26.03.2023 08:26 7,3 C 6,7 C 3,3 C 94 % 1003,4 hPa 0,0 l/m 0 min 0 min 15 W/m 3,2 km/h (1 Bft) 97,87 %
26.03.2023 08:28 7,3 C 6,7 C 3,3 C 95 % 1003,4 hPa 0,0 l/m 0 min 0 min 16 W/m 0,0 km/h (0 Bft) 97,87 %
26.03.2023 08:30 7,3 C 6,7 C 3,3 C 95 % 1003,3 hPa 0,0 l/m 0 min 0 min 16 W/m 0,0 km/h (0 Bft) 97,83 %
26.03.2023 08:32 7,3 C 6,7 C 3,3 C 95 % 1003,4 hPa 0,0 l/m 0 min 0 min 16 W/m 0,0 km/h (0 Bft) 95,74 %
26.03.2023 08:34 7,3 C 6,7 C 3,3 C 95 % 1003,4 hPa 0,0 l/m 0 min 2 min 16 W/m 6,4 km/h (2 Bft) 93,62 %
26.03.2023 08:36 7,3 C 6,7 C 3,3 C 95 % 1003,3 hPa 0,0 l/m 0 min 0 min 16 W/m 6,4 km/h (2 Bft) 97,87 %
26.03.2023 08:38 7,3 C 6,7 C 3,3 C 95 % 1003,3 hPa 0,0 l/m 0 min 2 min 16 W/m 3,2 km/h (1 Bft) 95,74 %
26.03.2023 08:40 7,3 C 6,7 C 3,3 C 95 % 1003,3 hPa 0,2 l/m 0 min 2 min 16 W/m 6,4 km/h (2 Bft) 95,74 %
26.03.2023 08:42 7,3 C 6,7 C 3,3 C 95 % 1003,3 hPa 0,0 l/m 0 min 2 min 18 W/m 3,2 km/h (1 Bft) 95,65 %
26.03.2023 08:44 7,3 C 6,7 C 3,3 C 95 % 1003,2 hPa 0,0 l/m 0 min 2 min 18 W/m 3,2 km/h (1 Bft) 97,87 %
26.03.2023 08:46 7,3 C 6,7 C 3,3 C 95 % 1003,2 hPa 0,0 l/m 0 min 2 min 18 W/m 6,4 km/h (2 Bft) 97,87 %
26.03.2023 08:48 7,4 C 6,7 C 3,3 C 95 % 1003,3 hPa 0,0 l/m 0 min 2 min 19 W/m 6,4 km/h (2 Bft) 97,87 %
26.03.2023 08:50 7,4 C 6,7 C 3,3 C 95 % 1003,2 hPa 0,0 l/m 0 min 2 min 19 W/m 6,4 km/h (2 Bft) 95,74 %
26.03.2023 08:52 7,4 C 6,7 C 3,3 C 95 % 1003,2 hPa 0,0 l/m 0 min 2 min 21 W/m 6,4 km/h (2 Bft) 95,74 %
26.03.2023 08:54 7,4 C 6,7 C 3,3 C 95 % 1003,1 hPa 0,0 l/m 0 min 2 min 21 W/m 3,2 km/h (1 Bft) 97,87 %
26.03.2023 08:56 7,4 C 6,7 C 3,3 C 95 % 1003,1 hPa 0,2 l/m 0 min 2 min 23 W/m 6,4 km/h (2 Bft) 97,83 %
26.03.2023 08:58 7,4 C 6,7 C 3,3 C 95 % 1003,1 hPa 0,0 l/m 0 min 2 min 23 W/m 3,2 km/h (1 Bft) 97,87 %
26.03.2023 09:00 7,4 C 6,7 C 3,3 C 95 % 1003,1 hPa 0,0 l/m 0 min 2 min 25 W/m 3,2 km/h (1 Bft) 95,74 %
26.03.2023 09:02 7,4 C 6,7 C 3,3 C 95 % 1003,1 hPa 0,0 l/m 0 min 2 min 26 W/m 6,4 km/h (2 Bft) 95,74 %
26.03.2023 09:04 7,4 C 6,7 C 3,3 C 95 % 1003,1 hPa 0,0 l/m 0 min 2 min 27 W/m 3,2 km/h (1 Bft) 97,87 %
26.03.2023 09:06 7,4 C 6,7 C 3,3 C 95 % 1003,1 hPa 0,0 l/m 0 min 2 min 28 W/m 3,2 km/h (1 Bft) 97,87 %
26.03.2023 09:08 7,4 C 6,7 C 3,3 C 95 % 1003,1 hPa 0,2 l/m 0 min 2 min 30 W/m 3,2 km/h (1 Bft) 95,74 %
26.03.2023 09:10 7,4 C 6,7 C 3,3 C 95 % 1003,0 hPa 0,0 l/m 0 min 2 min 30 W/m 3,2 km/h (1 Bft) 97,83 %
26.03.2023 09:12 7,4 C 6,7 C 3,3 C 95 % 1003,0 hPa 0,0 l/m 0 min 2 min 30 W/m 12,9 km/h (3 Bft) 97,87 %
26.03.2023 09:14 7,4 C 6,7 C 3,3 C 95 % 1003,0 hPa 0,0 l/m 0 min 2 min 30 W/m 3,2 km/h (1 Bft) 97,87 %
26.03.2023 09:16 7,4 C 6,7 C 3,3 C 95 % 1003,0 hPa 0,0 l/m 0 min 2 min 32 W/m 3,2 km/h (1 Bft) 95,74 %
26.03.2023 09:18 7,4 C 6,7 C 3,3 C 95 % 1002,9 hPa 0,0 l/m 0 min 2 min 33 W/m 6,4 km/h (2 Bft) 97,87 %
26.03.2023 09:20 7,4 C 6,7 C 3,3 C 95 % 1002,9 hPa 0,0 l/m 0 min 2 min 33 W/m 6,4 km/h (2 Bft) 97,87 %
26.03.2023 09:22 7,5 C 6,7 C 3,3 C 95 % 1002,9 hPa 0,2 l/m 0 min 2 min 34 W/m 3,2 km/h (1 Bft) 100,00 %
26.03.2023 09:24 7,5 C 6,7 C 3,3 C 96 % 1002,9 hPa 0,0 l/m 0 min 2 min 36 W/m 6,4 km/h (2 Bft) 95,65 %
26.03.2023 09:26 7,5 C 6,7 C 3,9 C 96 % 1002,9 hPa 0,0 l/m 0 min 2 min 39 W/m 6,4 km/h (2 Bft) 100,00 %
26.03.2023 09:28 7,5 C 7,2 C 3,9 C 96 % 1002,9 hPa 0,0 l/m 0 min 2 min 42 W/m 3,2 km/h (1 Bft) 100,00 %
26.03.2023 09:30 7,5 C 7,2 C 3,9 C 96 % 1002,9 hPa 0,0 l/m 0 min 2 min 45 W/m 6,4 km/h (2 Bft) 100,00 %
26.03.2023 09:32 7,6 C 7,2 C 3,9 C 96 % 1002,9 hPa 0,2 l/m 0 min 2 min 47 W/m 6,4 km/h (2 Bft) 100,00 %
26.03.2023 09:34 7,6 C 7,2 C 3,9 C 96 % 1002,8 hPa 0,0 l/m 0 min 2 min 51 W/m 3,2 km/h (1 Bft) 100,00 %
26.03.2023 09:36 7,6 C 7,2 C 3,9 C 96 % 1002,8 hPa 0,0 l/m 0 min 2 min 54 W/m 6,4 km/h (2 Bft) 97,87 %
26.03.2023 09:38 7,6 C 7,2 C 3,9 C 96 % 1002,8 hPa 0,0 l/m 0 min 2 min 57 W/m 6,4 km/h (2 Bft) 100,00 %
26.03.2023 09:40 7,6 C 7,2 C 3,9 C 96 % 1002,8 hPa 0,0 l/m 0 min 2 min 58 W/m 9,7 km/h (2 Bft) 95,65 %
26.03.2023 09:42 7,6 C 7,2 C 3,9 C 96 % 1002,8 hPa 0,0 l/m 0 min 2 min 59 W/m 6,4 km/h (2 Bft) 100,00 %
26.03.2023 09:44 7,6 C 7,2 C 3,9 C 96 % 1002,8 hPa 0,0 l/m 0 min 2 min 60 W/m 6,4 km/h (2 Bft) 100,00 %
26.03.2023 09:46 7,6 C 7,2 C 3,9 C 96 % 1002,8 hPa 0,2 l/m 0 min 2 min 60 W/m 12,9 km/h (3 Bft) 98,11 %
26.03.2023 09:48 7,6 C 7,2 C 3,9 C 96 % 1002,7 hPa 0,0 l/m 0 min 2 min 59 W/m 12,9 km/h (3 Bft) 97,87 %
26.03.2023 09:50 7,6 C 7,2 C 3,9 C 96 % 1002,7 hPa 0,0 l/m 0 min 2 min 57 W/m 12,9 km/h (3 Bft) 97,87 %
26.03.2023 09:52 7,6 C 7,2 C 3,9 C 96 % 1002,7 hPa 0,0 l/m 0 min 2 min 54 W/m 6,4 km/h (2 Bft) 97,56 %
26.03.2023 09:54 7,6 C 7,2 C 3,9 C 96 % 1002,7 hPa 0,0 l/m 0 min 2 min 53 W/m 12,9 km/h (3 Bft) 97,83 %
26.03.2023 09:56 7,6 C 7,2 C 3,9 C 96 % 1002,6 hPa 0,0 l/m 0 min 2 min 54 W/m 12,9 km/h (3 Bft) 95,74 %
26.03.2023 09:58 7,6 C 7,2 C 3,9 C 96 % 1002,6 hPa 0,0 l/m 0 min 2 min 56 W/m 6,4 km/h (2 Bft) 95,74 %
26.03.2023 10:00 7,7 C 7,2 C 3,9 C 96 % 1002,6 hPa 0,0 l/m 0 min 2 min 56 W/m 12,9 km/h (3 Bft) 97,87 %
26.03.2023 10:02 7,7 C 7,2 C 3,9 C 96 % 1002,6 hPa 0,2 l/m 0 min 2 min 55 W/m 6,4 km/h (2 Bft) 98,11 %
26.03.2023 10:04 7,7 C 7,2 C 3,9 C 96 % 1002,6 hPa 0,0 l/m 0 min 2 min 54 W/m 6,4 km/h (2 Bft) 97,67 %
26.03.2023 10:06 7,7 C 7,2 C 3,9 C 96 % 1002,6 hPa 0,0 l/m 0 min 2 min 54 W/m 6,4 km/h (2 Bft) 97,87 %
26.03.2023 10:08 7,7 C 7,2 C 3,9 C 96 % 1002,6 hPa 0,0 l/m 0 min 2 min 53 W/m 6,4 km/h (2 Bft) 97,83 %
26.03.2023 10:10 7,7 C 7,2 C 3,9 C 96 % 1002,6 hPa 0,0 l/m 0 min 2 min 50 W/m 6,4 km/h (2 Bft) 97,87 %
26.03.2023 10:12 7,7 C 7,2 C 3,9 C 96 % 1002,6 hPa 0,0 l/m 0 min 2 min 49 W/m 12,9 km/h (3 Bft) 97,87 %
26.03.2023 10:14 7,7 C 7,2 C 3,9 C 96 % 1002,6 hPa 0,2 l/m 0 min 2 min 50 W/m 6,4 km/h (2 Bft) 97,87 %
26.03.2023 10:16 7,7 C 7,2 C 3,9 C 96 % 1002,5 hPa 0,0 l/m 0 min 2 min 53 W/m 6,4 km/h (2 Bft) 97,87 %
26.03.2023 10:18 7,7 C 7,2 C 3,9 C 96 % 1002,5 hPa 0,0 l/m 0 min 2 min 56 W/m 6,4 km/h (2 Bft) 95,74 %
26.03.2023 10:20 7,7 C 7,2 C 3,9 C 96 % 1002,5 hPa 0,0 l/m 0 min 2 min 58 W/m 12,9 km/h (3 Bft) 100,00 %
26.03.2023 10:22 7,7 C 7,2 C 3,9 C 96 % 1002,5 hPa 0,2 l/m 0 min 2 min 56 W/m 6,4 km/h (2 Bft) 100,00 %
26.03.2023 10:24 7,7 C 7,2 C 3,9 C 96 % 1002,5 hPa 0,0 l/m 0 min 2 min 56 W/m 6,4 km/h (2 Bft) 100,00 %
26.03.2023 10:26 7,7 C 7,2 C 3,9 C 96 % 1002,5 hPa 0,0 l/m 0 min 2 min 56 W/m 12,9 km/h (3 Bft) 97,87 %
26.03.2023 10:28 7,7 C 7,2 C 3,9 C 96 % 1002,5 hPa 0,2 l/m 0 min 2 min 57 W/m 6,4 km/h (2 Bft) 100,00 %
26.03.2023 10:30 7,7 C 7,2 C 3,9 C 96 % 1002,5 hPa 0,0 l/m 0 min 2 min 58 W/m 6,4 km/h (2 Bft) 100,00 %
26.03.2023 10:32 7,7 C 7,2 C 3,9 C 96 % 1002,5 hPa 0,0 l/m 0 min 2 min 60 W/m 0,0 km/h (0 Bft) 100,00 %
26.03.2023 10:34 7,7 C 7,2 C 3,9 C 97 % 1002,4 hPa 0,0 l/m 0 min 2 min 57 W/m 3,2 km/h (1 Bft) 100,00 %
26.03.2023 10:36 7,8 C 7,2 C 3,9 C 97 % 1002,4 hPa 0,2 l/m 0 min 2 min 51 W/m 6,4 km/h (2 Bft) 100,00 %
26.03.2023 10:38 7,8 C 7,2 C 3,9 C 97 % 1002,4 hPa 0,0 l/m 0 min 2 min 50 W/m 12,9 km/h (3 Bft) 100,00 %
26.03.2023 10:40 7,8 C 7,2 C 3,9 C 97 % 1002,4 hPa 0,0 l/m 0 min 2 min 51 W/m 6,4 km/h (2 Bft) 100,00 %
26.03.2023 10:42 7,8 C 7,2 C 3,9 C 97 % 1002,4 hPa 0,0 l/m 0 min 2 min 50 W/m 12,9 km/h (3 Bft) 100,00 %
26.03.2023 10:44 7,8 C 7,2 C 3,9 C 97 % 1002,4 hPa 0,2 l/m 0 min 2 min 51 W/m 6,4 km/h (2 Bft) 100,00 %
26.03.2023 10:46 7,8 C 7,2 C 3,9 C 97 % 1002,3 hPa 0,0 l/m 0 min 2 min 50 W/m 6,4 km/h (2 Bft) 100,00 %
26.03.2023 10:48 7,8 C 7,2 C 3,9 C 97 % 1002,4 hPa 0,2 l/m 0 min 2 min 39 W/m 6,4 km/h (2 Bft) 97,83 %
26.03.2023 10:50 7,8 C 7,2 C 3,9 C 97 % 1002,3 hPa 0,0 l/m 0 min 2 min 39 W/m 6,4 km/h (2 Bft) 95,74 %
26.03.2023 10:52 7,8 C 7,2 C 3,9 C 97 % 1002,3 hPa 0,0 l/m 0 min 2 min 51 W/m 6,4 km/h (2 Bft) 95,74 %
26.03.2023 10:54 7,8 C 7,2 C 3,9 C 97 % 1002,3 hPa 0,2 l/m 0 min 2 min 55 W/m 6,4 km/h (2 Bft) 95,74 %
26.03.2023 10:56 7,8 C 7,2 C 3,9 C 97 % 1002,3 hPa 0,0 l/m 0 min 2 min 53 W/m 6,4 km/h (2 Bft) 95,74 %
26.03.2023 10:58 7,8 C 7,2 C 3,9 C 97 % 1002,3 hPa 0,2 l/m 0 min 2 min 61 W/m 6,4 km/h (2 Bft) 95,74 %
26.03.2023 11:00 7,8 C 7,2 C 4,4 C 97 % 1002,3 hPa 0,0 l/m 0 min 2 min 62 W/m 6,4 km/h (2 Bft) 93,62 %
26.03.2023 11:02 7,8 C 7,2 C 3,9 C 97 % 1002,3 hPa 0,0 l/m 0 min 2 min 63 W/m 12,9 km/h (3 Bft) 97,83 %
26.03.2023 11:04 7,8 C 7,2 C 4,4 C 97 % 1002,3 hPa 0,2 l/m 0 min 2 min 57 W/m 12,9 km/h (3 Bft) 97,87 %
26.03.2023 11:06 7,8 C 7,2 C 4,4 C 97 % 1002,3 hPa 0,0 l/m 0 min 2 min 47 W/m 12,9 km/h (3 Bft) 95,74 %
26.03.2023 11:08 7,8 C 7,2 C 3,9 C 97 % 1002,3 hPa 0,2 l/m 0 min 2 min 45 W/m 12,9 km/h (3 Bft) 93,62 %
26.03.2023 11:10 7,8 C 7,2 C 4,4 C 97 % 1002,3 hPa 0,0 l/m 0 min 2 min 63 W/m 12,9 km/h (3 Bft) 95,74 %
26.03.2023 11:12 7,8 C 7,2 C 4,4 C 97 % 1002,2 hPa 0,0 l/m 0 min 2 min 70 W/m 6,4 km/h (2 Bft) 93,62 %
26.03.2023 11:14 7,9 C 7,2 C 4,4 C 97 % 1002,3 hPa 0,2 l/m 0 min 2 min 65 W/m 6,4 km/h (2 Bft) 95,74 %
26.03.2023 11:16 7,9 C 7,2 C 4,4 C 97 % 1002,2 hPa 0,0 l/m 0 min 2 min 66 W/m 6,4 km/h (2 Bft) 93,48 %
26.03.2023 11:18 7,9 C 7,2 C 4,4 C 97 % 1002,2 hPa 0,0 l/m 0 min 2 min 60 W/m 6,4 km/h (2 Bft) 95,74 %
26.03.2023 11:20 7,9 C 7,2 C 4,4 C 97 % 1002,2 hPa 0,2 l/m 0 min 2 min 60 W/m 12,9 km/h (3 Bft) 93,62 %
26.03.2023 11:22 7,9 C 7,2 C 4,4 C 97 % 1002,2 hPa 0,0 l/m 0 min 2 min 62 W/m 12,9 km/h (3 Bft) 95,74 %
26.03.2023 11:24 7,9 C 7,2 C 4,4 C 97 % 1002,2 hPa 0,0 l/m 0 min 2 min 66 W/m 12,9 km/h (3 Bft) 95,74 %
26.03.2023 11:26 7,9 C 7,2 C 3,9 C 97 % 1002,1 hPa 0,0 l/m 0 min 2 min 67 W/m 12,9 km/h (3 Bft) 95,74 %
26.03.2023 11:28 7,8 C 7,2 C 3,9 C 97 % 1002,1 hPa 0,2 l/m 0 min 2 min 67 W/m 12,9 km/h (3 Bft) 93,62 %
26.03.2023 11:30 7,8 C 7,2 C 3,9 C 97 % 1002,1 hPa 0,0 l/m 0 min 2 min 67 W/m 9,7 km/h (2 Bft) 93,48 %
26.03.2023 11:32 7,8 C 7,2 C 3,9 C 97 % 1002,1 hPa 0,0 l/m 0 min 2 min 65 W/m 12,9 km/h (3 Bft) 95,74 %
26.03.2023 11:34 7,7 C 7,2 C 3,9 C 97 % 1002,1 hPa 0,2 l/m 0 min 2 min 65 W/m 12,9 km/h (3 Bft) 93,62 %
26.03.2023 11:36 7,7 C 7,2 C 3,9 C 97 % 1002,1 hPa 0,0 l/m 0 min 2 min 63 W/m 12,9 km/h (3 Bft) 93,62 %
26.03.2023 11:38 7,7 C 7,2 C 3,9 C 97 % 1002,1 hPa 0,0 l/m 0 min 2 min 59 W/m 16,1 km/h (3 Bft) 95,74 %
26.03.2023 11:40 7,7 C 7,2 C 3,9 C 97 % 1002,1 hPa 0,2 l/m 0 min 2 min 62 W/m 19,3 km/h (3 Bft) 95,74 %
26.03.2023 11:42 7,6 C 7,2 C 3,9 C 97 % 1002,1 hPa 0,0 l/m 0 min 2 min 60 W/m 9,7 km/h (2 Bft) 93,48 %
26.03.2023 11:44 7,6 C 7,2 C 3,9 C 97 % 1002,1 hPa 0,2 l/m 0 min 2 min 55 W/m 6,4 km/h (2 Bft) 95,74 %
26.03.2023 11:46 7,6 C 7,2 C 3,9 C 97 % 1002,1 hPa 0,0 l/m 0 min 2 min 60 W/m 16,1 km/h (3 Bft) 95,74 %
26.03.2023 11:48 7,6 C 6,7 C 3,9 C 97 % 1002,1 hPa 0,0 l/m 0 min 2 min 59 W/m 19,3 km/h (3 Bft) 97,87 %
26.03.2023 11:50 7,5 C 6,7 C 3,3 C 97 % 1002,1 hPa 0,2 l/m 0 min 2 min 64 W/m 12,9 km/h (3 Bft) 97,87 %
26.03.2023 11:52 7,5 C 6,7 C 3,3 C 97 % 1002,0 hPa 0,2 l/m 0 min 2 min 67 W/m 12,9 km/h (3 Bft) 95,74 %
26.03.2023 11:54 7,4 C 6,7 C 3,3 C 97 % 1002,0 hPa 0,0 l/m 0 min 2 min 68 W/m 6,4 km/h (2 Bft) 95,74 %
26.03.2023 11:56 7,4 C 6,7 C 3,3 C 97 % 1002,0 hPa 0,2 l/m 0 min 2 min 71 W/m 12,9 km/h (3 Bft) 97,83 %
26.03.2023 11:58 7,3 C 6,7 C 3,3 C 97 % 1002,0 hPa 0,0 l/m 0 min 2 min 72 W/m 12,9 km/h (3 Bft) 97,87 %
26.03.2023 12:00 7,3 C 6,7 C 3,3 C 97 % 1002,0 hPa 0,2 l/m 0 min 2 min 76 W/m 6,4 km/h (2 Bft) 97,87 %
26.03.2023 12:02 7,3 C 6,7 C 3,3 C 97 % 1002,0 hPa 0,0 l/m 0 min 2 min 82 W/m 12,9 km/h (3 Bft) 97,87 %
26.03.2023 12:04 7,3 C 6,7 C 3,3 C 97 % 1002,0 hPa 0,0 l/m 0 min 2 min 90 W/m 16,1 km/h (3 Bft) 95,74 %
26.03.2023 12:07 7,2 C 6,7 C 3,3 C 96 % 1002,0 hPa 0,2 l/m 0 min 3 min 93 W/m 12,9 km/h (3 Bft) 98,57 %
26.03.2023 12:08 7,2 C 6,7 C 3,3 C 96 % 1002,0 hPa 0,0 l/m 0 min 1 min 93 W/m 12,9 km/h (3 Bft) 95,83 %
26.03.2023 12:12 7,1 C 6,7 C 3,3 C 96 % 1002,0 hPa 0,2 l/m 0 min 4 min 101 W/m 6,4 km/h (2 Bft) 96,30 %
26.03.2023 12:14 7,0 C 6,7 C 3,3 C 96 % 1002,0 hPa 0,0 l/m 0 min 2 min 106 W/m 6,4 km/h (2 Bft) 100,00 %
26.03.2023 12:16 6,9 C 6,7 C 3,3 C 96 % 1002,0 hPa 0,0 l/m 0 min 2 min 110 W/m 6,4 km/h (2 Bft) 100,00 %
26.03.2023 12:18 6,9 C 6,7 C 3,3 C 96 % 1001,9 hPa 0,0 l/m 0 min 2 min 113 W/m 6,4 km/h (2 Bft) 100,00 %
26.03.2023 12:20 6,9 C 6,7 C 3,3 C 96 % 1001,9 hPa 0,2 l/m 0 min 2 min 119 W/m 6,4 km/h (2 Bft) 97,87 %
26.03.2023 12:22 6,9 C 7,2 C 3,3 C 96 % 1001,8 hPa 0,0 l/m 0 min 2 min 123 W/m 9,7 km/h (2 Bft) 100,00 %
26.03.2023 12:24 7,0 C 7,2 C 3,3 C 96 % 1001,8 hPa 0,0 l/m 0 min 2 min 129 W/m 6,4 km/h (2 Bft) 100,00 %
26.03.2023 12:26 7,1 C 7,2 C 3,3 C 96 % 1001,8 hPa 0,0 l/m 0 min 2 min 135 W/m 6,4 km/h (2 Bft) 97,87 %
26.03.2023 12:28 7,1 C 7,2 C 3,9 C 96 % 1001,8 hPa 0,2 l/m 0 min 2 min 138 W/m 6,4 km/h (2 Bft) 100,00 %
26.03.2023 12:30 7,1 C 7,2 C 3,9 C 96 % 1001,8 hPa 0,0 l/m 0 min 2 min 138 W/m 9,7 km/h (2 Bft) 100,00 %
26.03.2023 12:32 7,2 C 7,2 C 3,9 C 96 % 1001,8 hPa 0,0 l/m 0 min 2 min 137 W/m 6,4 km/h (2 Bft) 97,87 %
26.03.2023 12:34 7,2 C 7,2 C 3,9 C 96 % 1001,8 hPa 0,0 l/m 0 min 2 min 140 W/m 9,7 km/h (2 Bft) 100,00 %
26.03.2023 12:36 7,2 C 7,2 C 3,3 C 96 % 1001,8 hPa 0,0 l/m 0 min 2 min 141 W/m 9,7 km/h (2 Bft) 100,00 %
26.03.2023 12:38 7,2 C 7,8 C 3,9 C 96 % 1001,8 hPa 0,0 l/m 0 min 2 min 146 W/m 6,4 km/h (2 Bft) 97,87 %
26.03.2023 12:40 7,2 C 7,8 C 3,9 C 96 % 1001,8 hPa 0,0 l/m 0 min 2 min 150 W/m 6,4 km/h (2 Bft) 100,00 %
26.03.2023 12:42 7,3 C 7,8 C 3,9 C 96 % 1001,8 hPa 0,0 l/m 0 min 2 min 151 W/m 6,4 km/h (2 Bft) 100,00 %
26.03.2023 12:44 7,3 C 7,8 C 3,9 C 96 % 1001,8 hPa 0,0 l/m 0 min 2 min 151 W/m 6,4 km/h (2 Bft) 95,65 %
26.03.2023 12:46 7,3 C 7,8 C 3,9 C 96 % 1001,7 hPa 0,2 l/m 0 min 2 min 151 W/m 9,7 km/h (2 Bft) 100,00 %
26.03.2023 12:48 7,4 C 7,8 C 3,9 C 96 % 1001,8 hPa 0,0 l/m 0 min 2 min 151 W/m 6,4 km/h (2 Bft) 100,00 %
26.03.2023 12:50 7,4 C 7,8 C 3,9 C 96 % 1001,7 hPa 0,0 l/m 0 min 2 min 151 W/m 6,4 km/h (2 Bft) 97,87 %
26.03.2023 12:52 7,5 C 7,8 C 3,9 C 96 % 1001,7 hPa 0,0 l/m 0 min 2 min 149 W/m 6,4 km/h (2 Bft) 100,00 %
26.03.2023 12:54 7,5 C 7,8 C 3,9 C 96 % 1001,7 hPa 0,0 l/m 0 min 2 min 144 W/m 16,1 km/h (3 Bft) 100,00 %
26.03.2023 12:56 7,6 C 7,8 C 3,9 C 96 % 1001,7 hPa 0,0 l/m 0 min 2 min 140 W/m 16,1 km/h (3 Bft) 95,74 %
26.03.2023 12:58 7,6 C 7,8 C 4,4 C 96 % 1001,7 hPa 0,0 l/m 0 min 2 min 139 W/m 12,9 km/h (3 Bft) 100,00 %
26.03.2023 13:00 7,6 C 8,3 C 4,4 C 96 % 1001,7 hPa 0,0 l/m 0 min 2 min 141 W/m 6,4 km/h (2 Bft) 97,87 %
26.03.2023 13:02 7,6 C 8,3 C 3,9 C 97 % 1001,7 hPa 0,0 l/m 0 min 2 min 147 W/m 12,9 km/h (3 Bft) 97,87 %
26.03.2023 13:04 7,6 C 8,3 C 3,9 C 96 % 1001,7 hPa 0,0 l/m 0 min 0 min 153 W/m 9,7 km/h (2 Bft) 100,00 %
26.03.2023 13:06 7,6 C 7,8 C 3,9 C 96 % 1001,6 hPa 0,0 l/m 0 min 2 min 161 W/m 6,4 km/h (2 Bft) 100,00 %
26.03.2023 13:08 7,6 C 8,3 C 3,9 C 96 % 1001,7 hPa 0,0 l/m 0 min 2 min 176 W/m 9,7 km/h (2 Bft) 97,14 %
26.03.2023 13:10 7,6 C 8,3 C 3,9 C 96 % 1001,6 hPa 0,0 l/m 0 min 0 min 190 W/m 9,7 km/h (2 Bft) 100,00 %
26.03.2023 13:12 7,6 C 8,3 C 4,4 C 96 % 1001,7 hPa 0,0 l/m 0 min 2 min 200 W/m 12,9 km/h (3 Bft) 97,83 %
26.03.2023 13:14 7,7 C 8,9 C 4,4 C 97 % 1001,7 hPa 0,0 l/m 0 min 0 min 200 W/m 9,7 km/h (2 Bft) 97,87 %
26.03.2023 13:16 7,7 C 8,9 C 4,4 C 97 % 1001,7 hPa 0,0 l/m 0 min 0 min 194 W/m 6,4 km/h (2 Bft) 97,87 %
26.03.2023 13:18 7,7 C 8,9 C 4,4 C 97 % 1001,7 hPa 0,0 l/m 0 min 0 min 194 W/m 6,4 km/h (2 Bft) 95,74 %
26.03.2023 13:20 7,8 C 8,9 C 4,4 C 97 % 1001,7 hPa 0,0 l/m 0 min 0 min 197 W/m 12,9 km/h (3 Bft) 100,00 %
26.03.2023 13:22 7,8 C 8,3 C 4,4 C 97 % 1001,7 hPa 0,0 l/m 0 min 0 min 193 W/m 9,7 km/h (2 Bft) 97,87 %
26.03.2023 13:24 7,8 C 8,9 C 4,4 C 96 % 1001,7 hPa 0,0 l/m 0 min 0 min 200 W/m 6,4 km/h (2 Bft) 97,87 %
26.03.2023 13:26 7,9 C 8,9 C 4,4 C 96 % 1001,6 hPa 0,0 l/m 0 min 0 min 210 W/m 9,7 km/h (2 Bft) 95,65 %
26.03.2023 13:28 7,9 C 8,9 C 4,4 C 97 % 1001,6 hPa 0,0 l/m 0 min 0 min 204 W/m 12,9 km/h (3 Bft) 95,74 %
26.03.2023 13:30 7,9 C 8,9 C 4,4 C 96 % 1001,6 hPa 0,0 l/m 0 min 0 min 197 W/m 9,7 km/h (2 Bft) 95,74 %
26.03.2023 13:32 7,9 C 8,9 C 4,4 C 96 % 1001,6 hPa 0,0 l/m 0 min 2 min 201 W/m 9,7 km/h (2 Bft) 95,74 %
26.03.2023 13:34 7,9 C 8,9 C 4,4 C 96 % 1001,6 hPa 0,0 l/m 0 min 0 min 206 W/m 9,7 km/h (2 Bft) 97,87 %
26.03.2023 13:36 8,0 C 9,4 C 4,4 C 96 % 1001,6 hPa 0,0 l/m 0 min 0 min 206 W/m 6,4 km/h (2 Bft) 95,74 %
26.03.2023 13:38 8,0 C 9,4 C 4,4 C 97 % 1001,6 hPa 0,0 l/m 0 min 0 min 202 W/m 9,7 km/h (2 Bft) 97,87 %
26.03.2023 13:40 7,9 C 8,9 C 4,4 C 97 % 1001,6 hPa 0,0 l/m 0 min 0 min 195 W/m 9,7 km/h (2 Bft) 95,65 %
26.03.2023 13:42 7,9 C 8,9 C 4,4 C 96 % 1001,6 hPa 0,0 l/m 0 min 0 min 194 W/m 6,4 km/h (2 Bft) 95,74 %
26.03.2023 13:44 7,9 C 8,9 C 4,4 C 96 % 1001,6 hPa 0,0 l/m 0 min 0 min 199 W/m 9,7 km/h (2 Bft) 93,62 %
26.03.2023 13:46 7,9 C 8,9 C 4,4 C 96 % 1001,6 hPa 0,0 l/m 0 min 0 min 198 W/m 9,7 km/h (2 Bft) 95,74 %
26.03.2023 13:48 7,9 C 8,9 C 4,4 C 96 % 1001,6 hPa 0,0 l/m 0 min 2 min 185 W/m 12,9 km/h (3 Bft) 95,74 %
26.03.2023 13:50 7,9 C 8,9 C 4,4 C 96 % 1001,6 hPa 0,0 l/m 0 min 0 min 168 W/m 9,7 km/h (2 Bft) 93,62 %
26.03.2023 13:52 7,8 C 8,3 C 3,9 C 96 % 1001,6 hPa 0,2 l/m 0 min 0 min 157 W/m 12,9 km/h (3 Bft) 89,36 %
26.03.2023 13:54 7,8 C 8,3 C 4,4 C 96 % 1001,6 hPa 0,0 l/m 0 min 2 min 149 W/m 9,7 km/h (2 Bft) 91,30 %
26.03.2023 13:56 7,8 C 8,3 C 4,4 C 96 % 1001,6 hPa 0,0 l/m 0 min 2 min 142 W/m 9,7 km/h (2 Bft) 89,36 %
26.03.2023 13:58 7,8 C 8,3 C 3,9 C 96 % 1001,6 hPa 0,0 l/m 0 min 2 min 144 W/m 16,1 km/h (3 Bft) 93,62 %
26.03.2023 14:00 7,8 C 8,3 C 3,9 C 96 % 1001,7 hPa 0,0 l/m 0 min 0 min 154 W/m 12,9 km/h (3 Bft) 93,62 %
26.03.2023 14:02 7,8 C 8,3 C 3,9 C 96 % 1001,7 hPa 0,0 l/m 0 min 2 min 161 W/m 6,4 km/h (2 Bft) 93,62 %
26.03.2023 14:04 7,8 C 8,3 C 4,4 C 96 % 1001,7 hPa 0,0 l/m 0 min 0 min 162 W/m 12,9 km/h (3 Bft) 91,49 %
26.03.2023 14:06 7,8 C 8,3 C 4,4 C 96 % 1001,7 hPa 0,0 l/m 0 min 2 min 160 W/m 12,9 km/h (3 Bft) 93,10 %
26.03.2023 14:08 7,8 C 8,3 C 4,4 C 96 % 1001,7 hPa 0,0 l/m 0 min 0 min 160 W/m 6,4 km/h (2 Bft) 97,14 %
26.03.2023 14:10 7,8 C 8,3 C 4,4 C 96 % 1001,7 hPa 0,0 l/m 0 min 0 min 159 W/m 6,4 km/h (2 Bft) 97,87 %
26.03.2023 14:12 7,8 C 8,3 C 4,4 C 96 % 1001,7 hPa 0,0 l/m 0 min 0 min 158 W/m 6,4 km/h (2 Bft) 95,74 %
26.03.2023 14:14 7,8 C 8,3 C 4,4 C 96 % 1001,7 hPa 0,0 l/m 0 min 0 min 158 W/m 12,9 km/h (3 Bft) 97,87 %
26.03.2023 14:16 7,9 C 8,3 C 4,4 C 96 % 1001,7 hPa 0,0 l/m 0 min 0 min 160 W/m 12,9 km/h (3 Bft) 97,87 %
26.03.2023 14:18 7,8 C 8,3 C 3,9 C 96 % 1001,7 hPa 0,0 l/m 0 min 0 min 163 W/m 19,3 km/h (3 Bft) 97,87 %
26.03.2023 14:20 7,9 C 8,3 C 4,4 C 96 % 1001,7 hPa 0,0 l/m 0 min 2 min 171 W/m 9,7 km/h (2 Bft) 95,65 %
26.03.2023 14:22 7,9 C 8,3 C 4,4 C 96 % 1001,7 hPa 0,0 l/m 0 min 2 min 182 W/m 12,9 km/h (3 Bft) 97,87 %
26.03.2023 14:24 7,9 C 8,3 C 4,4 C 96 % 1001,7 hPa 0,0 l/m 0 min 2 min 190 W/m 6,4 km/h (2 Bft) 97,87 %
26.03.2023 14:26 7,9 C 8,3 C 4,4 C 96 % 1001,7 hPa 0,0 l/m 0 min 2 min 192 W/m 12,9 km/h (3 Bft) 95,74 %
26.03.2023 14:28 7,9 C 8,3 C 4,4 C 95 % 1001,7 hPa 0,0 l/m 0 min 2 min 188 W/m 16,1 km/h (3 Bft) 95,74 %
26.03.2023 14:30 7,9 C 8,3 C 4,4 C 95 % 1001,7 hPa 0,0 l/m 0 min 2 min 185 W/m 9,7 km/h (2 Bft) 97,87 %
26.03.2023 14:32 7,9 C 8,3 C 4,4 C 95 % 1001,7 hPa 0,0 l/m 0 min 0 min 182 W/m 16,1 km/h (3 Bft) 97,87 %
26.03.2023 14:34 7,9 C 8,3 C 4,4 C 95 % 1001,7 hPa 0,0 l/m 0 min 2 min 184 W/m 12,9 km/h (3 Bft) 97,83 %
26.03.2023 14:36 7,9 C 8,3 C 4,4 C 95 % 1001,7 hPa 0,0 l/m 0 min 0 min 194 W/m 12,9 km/h (3 Bft) 95,74 %
26.03.2023 14:38 8,0 C 8,3 C 4,4 C 95 % 1001,7 hPa 0,0 l/m 0 min 2 min 198 W/m 9,7 km/h (2 Bft) 95,74 %
26.03.2023 14:40 8,1 C 8,9 C 4,4 C 95 % 1001,7 hPa 0,0 l/m 0 min 0 min 201 W/m 9,7 km/h (2 Bft) 95,74 %
26.03.2023 14:42 8,1 C 8,9 C 4,4 C 95 % 1001,7 hPa 0,0 l/m 0 min 0 min 209 W/m 9,7 km/h (2 Bft) 97,87 %
26.03.2023 14:44 8,1 C 8,9 C 4,4 C 95 % 1001,7 hPa 0,0 l/m 0 min 0 min 221 W/m 16,1 km/h (3 Bft) 100,00 %
26.03.2023 14:46 8,1 C 8,9 C 4,4 C 95 % 1001,7 hPa 0,0 l/m 0 min 0 min 235 W/m 9,7 km/h (2 Bft) 100,00 %
26.03.2023 14:48 8,2 C 9,4 C 5,0 C 95 % 1001,7 hPa 0,0 l/m 0 min 0 min 236 W/m 3,2 km/h (1 Bft) 100,00 %
26.03.2023 14:50 8,2 C 9,4 C 4,4 C 95 % 1001,7 hPa 0,0 l/m 0 min 0 min 229 W/m 12,9 km/h (3 Bft) 97,87 %
26.03.2023 14:52 8,2 C 9,4 C 4,4 C 95 % 1001,7 hPa 0,0 l/m 0 min 0 min 234 W/m 12,9 km/h (3 Bft) 100,00 %
26.03.2023 14:54 8,2 C 9,4 C 5,0 C 95 % 1001,7 hPa 0,0 l/m 0 min 0 min 254 W/m 9,7 km/h (2 Bft) 100,00 %
26.03.2023 14:56 8,3 C 10,0 C 5,0 C 95 % 1001,7 hPa 0,0 l/m 0 min 0 min 274 W/m 9,7 km/h (2 Bft) 100,00 %
26.03.2023 14:58 8,4 C 10,0 C 5,0 C 95 % 1001,7 hPa 0,0 l/m 0 min 0 min 279 W/m 12,9 km/h (3 Bft) 100,00 %
26.03.2023 15:00 8,4 C 10,0 C 5,0 C 95 % 1001,8 hPa 0,0 l/m 0 min 0 min 276 W/m 12,9 km/h (3 Bft) 97,87 %
26.03.2023 15:02 8,4 C 10,0 C 5,0 C 95 % 1001,7 hPa 0,0 l/m 0 min 0 min 270 W/m 9,7 km/h (2 Bft) 95,65 %
26.03.2023 15:04 8,5 C 10,0 C 5,0 C 95 % 1001,8 hPa 0,0 l/m 0 min 0 min 253 W/m 6,4 km/h (2 Bft) 100,00 %
26.03.2023 15:06 8,6 C 10,0 C 5,0 C 95 % 1001,8 hPa 0,0 l/m 0 min 0 min 233 W/m 9,7 km/h (2 Bft) 100,00 %
26.03.2023 15:08 8,6 C 10,0 C 5,0 C 95 % 1001,8 hPa 0,0 l/m 0 min 0 min 213 W/m 9,7 km/h (2 Bft) 97,14 %
26.03.2023 15:10 8,6 C 10,0 C 5,0 C 95 % 1001,8 hPa 0,0 l/m 0 min 0 min 207 W/m 12,9 km/h (3 Bft) 100,00 %
26.03.2023 15:12 8,6 C 9,4 C 4,4 C 95 % 1001,8 hPa 0,0 l/m 0 min 0 min 214 W/m 9,7 km/h (2 Bft) 97,87 %
26.03.2023 15:14 8,5 C 9,4 C 4,4 C 95 % 1001,8 hPa 0,0 l/m 0 min 0 min 224 W/m 16,1 km/h (3 Bft) 100,00 %
26.03.2023 15:16 8,6 C 9,4 C 4,4 C 95 % 1001,8 hPa 0,0 l/m 0 min 0 min 227 W/m 9,7 km/h (2 Bft) 97,83 %
26.03.2023 15:18 8,6 C 10,0 C 4,4 C 94 % 1001,8 hPa 0,0 l/m 0 min 0 min 231 W/m 9,7 km/h (2 Bft) 100,00 %
26.03.2023 15:20 8,6 C 9,4 C 4,4 C 94 % 1001,8 hPa 0,0 l/m 0 min 0 min 236 W/m 16,1 km/h (3 Bft) 97,87 %
26.03.2023 15:22 8,6 C 9,4 C 5,0 C 94 % 1001,8 hPa 0,0 l/m 0 min 0 min 228 W/m 16,1 km/h (3 Bft) 100,00 %
26.03.2023 15:24 8,6 C 9,4 C 5,0 C 94 % 1001,9 hPa 0,0 l/m 0 min 0 min 226 W/m 16,1 km/h (3 Bft) 100,00 %
26.03.2023 15:26 8,6 C 10,0 C 5,0 C 94 % 1001,9 hPa 0,0 l/m 0 min 0 min 200 W/m 12,9 km/h (3 Bft) 97,87 %
26.03.2023 15:28 8,7 C 10,0 C 5,0 C 94 % 1001,8 hPa 0,0 l/m 0 min 0 min 170 W/m 9,7 km/h (2 Bft) 100,00 %
26.03.2023 15:30 8,7 C 10,0 C 5,0 C 94 % 1001,9 hPa 0,0 l/m 0 min 0 min 191 W/m 9,7 km/h (2 Bft) 95,65 %
26.03.2023 15:32 8,8 C 10,0 C 5,0 C 94 % 1001,9 hPa 0,0 l/m 0 min 0 min 203 W/m 12,9 km/h (3 Bft) 97,87 %
26.03.2023 15:34 8,8 C 9,4 C 5,0 C 94 % 1001,9 hPa 0,0 l/m 0 min 0 min 202 W/m 6,4 km/h (2 Bft) 97,87 %
26.03.2023 15:36 8,8 C 9,4 C 5,0 C 94 % 1001,9 hPa 0,0 l/m 0 min 0 min 197 W/m 16,1 km/h (3 Bft) 97,87 %
26.03.2023 15:38 8,8 C 9,4 C 5,0 C 94 % 1001,9 hPa 0,0 l/m 0 min 0 min 187 W/m 9,7 km/h (2 Bft) 95,74 %
26.03.2023 15:40 8,8 C 9,4 C 4,4 C 93 % 1001,9 hPa 0,0 l/m 0 min 0 min 162 W/m 12,9 km/h (3 Bft) 97,87 %
26.03.2023 15:42 8,8 C 9,4 C 4,4 C 93 % 1001,9 hPa 0,0 l/m 0 min 0 min 141 W/m 16,1 km/h (3 Bft) 95,74 %
26.03.2023 15:44 8,8 C 9,4 C 4,4 C 93 % 1001,9 hPa 0,0 l/m 0 min 0 min 139 W/m 6,4 km/h (2 Bft) 95,65 %
26.03.2023 15:46 8,7 C 8,9 C 4,4 C 92 % 1001,9 hPa 0,0 l/m 0 min 0 min 166 W/m 16,1 km/h (3 Bft) 95,74 %
26.03.2023 15:48 8,7 C 9,4 C 4,4 C 92 % 1001,9 hPa 0,0 l/m 0 min 0 min 201 W/m 3,2 km/h (1 Bft) 93,62 %
26.03.2023 15:50 8,8 C 10,0 C 5,0 C 92 % 1001,9 hPa 0,0 l/m 0 min 0 min 217 W/m 3,2 km/h (1 Bft) 97,87 %
26.03.2023 15:52 8,8 C 10,0 C 5,0 C 92 % 1001,9 hPa 0,0 l/m 0 min 0 min 221 W/m 12,9 km/h (3 Bft) 97,87 %
26.03.2023 15:54 8,8 C 10,0 C 4,4 C 92 % 1001,9 hPa 0,0 l/m 0 min 0 min 239 W/m 9,7 km/h (2 Bft) 95,74 %
26.03.2023 15:56 8,8 C 10,0 C 4,4 C 92 % 1001,9 hPa 0,0 l/m 0 min 0 min 250 W/m 12,9 km/h (3 Bft) 93,62 %
26.03.2023 15:58 8,8 C 10,0 C 4,4 C 91 % 1001,9 hPa 0,0 l/m 0 min 0 min 259 W/m 9,7 km/h (2 Bft) 95,65 %
26.03.2023 16:00 8,9 C 10,0 C 5,0 C 91 % 1002,0 hPa 0,0 l/m 0 min 0 min 260 W/m 6,4 km/h (2 Bft) 95,74 %
26.03.2023 16:02 8,9 C 10,6 C 5,0 C 91 % 1002,0 hPa 0,0 l/m 0 min 0 min 226 W/m 3,2 km/h (1 Bft) 97,87 %
26.03.2023 16:04 9,1 C 10,6 C 5,0 C 90 % 1002,0 hPa 0,0 l/m 0 min 0 min 169 W/m 0,0 km/h (0 Bft) 95,74 %
26.03.2023 16:06 9,1 C 10,0 C 5,0 C 90 % 1001,9 hPa 0,0 l/m 0 min 0 min 152 W/m 9,7 km/h (2 Bft) 96,61 %
26.03.2023 16:08 9,1 C 10,0 C 5,0 C 90 % 1001,9 hPa 0,0 l/m 0 min 0 min 143 W/m 9,7 km/h (2 Bft) 97,14 %
26.03.2023 16:10 9,2 C 10,0 C 5,0 C 90 % 1001,9 hPa 0,0 l/m 0 min 0 min 125 W/m 16,1 km/h (3 Bft) 97,87 %
26.03.2023 16:12 9,2 C 9,4 C 5,0 C 90 % 1002,0 hPa 0,0 l/m 0 min 0 min 94 W/m 12,9 km/h (3 Bft) 95,65 %
26.03.2023 16:14 9,2 C 9,4 C 5,0 C 89 % 1002,0 hPa 0,0 l/m 0 min 0 min 70 W/m 9,7 km/h (2 Bft) 97,87 %
26.03.2023 16:16 9,2 C 8,9 C 5,0 C 89 % 1002,0 hPa 0,0 l/m 0 min 0 min 58 W/m 16,1 km/h (3 Bft) 95,74 %
26.03.2023 16:18 9,1 C 8,9 C 5,0 C 88 % 1002,0 hPa 0,0 l/m 0 min 0 min 64 W/m 6,4 km/h (2 Bft) 93,62 %
26.03.2023 16:20 9,1 C 8,9 C 5,6 C 88 % 1002,0 hPa 0,0 l/m 0 min 0 min 73 W/m 6,4 km/h (2 Bft) 97,87 %
26.03.2023 16:22 9,1 C 8,9 C 5,6 C 89 % 1002,0 hPa 0,0 l/m 0 min 0 min 81 W/m 9,7 km/h (2 Bft) 97,87 %
26.03.2023 16:24 9,1 C 8,9 C 5,6 C 89 % 1002,1 hPa 0,0 l/m 0 min 0 min 90 W/m 12,9 km/h (3 Bft) 97,83 %
26.03.2023 16:26 9,1 C 8,9 C 5,6 C 89 % 1002,0 hPa 0,0 l/m 0 min 0 min 108 W/m 12,9 km/h (3 Bft) 97,87 %
26.03.2023 16:28 9,1 C 8,9 C 5,6 C 89 % 1002,1 hPa 0,0 l/m 0 min 0 min 142 W/m 9,7 km/h (2 Bft) 95,74 %
26.03.2023 16:30 9,1 C 9,4 C 5,6 C 89 % 1002,2 hPa 0,0 l/m 0 min 0 min 184 W/m 9,7 km/h (2 Bft) 95,74 %
26.03.2023 16:32 9,1 C 9,4 C 5,6 C 89 % 1002,2 hPa 0,0 l/m 0 min 0 min 204 W/m 12,9 km/h (3 Bft) 97,87 %
26.03.2023 16:34 9,1 C 9,4 C 5,6 C 89 % 1002,2 hPa 0,0 l/m 0 min 0 min 183 W/m 12,9 km/h (3 Bft) 93,62 %
26.03.2023 16:36 9,2 C 9,4 C 5,6 C 89 % 1002,2 hPa 0,0 l/m 0 min 0 min 127 W/m 12,9 km/h (3 Bft) 97,87 %
26.03.2023 16:38 9,2 C 9,4 C 5,6 C 89 % 1002,2 hPa 0,0 l/m 0 min 0 min 110 W/m 9,7 km/h (2 Bft) 100,00 %
26.03.2023 16:40 9,2 C 9,4 C 5,6 C 89 % 1002,3 hPa 0,0 l/m 0 min 0 min 115 W/m 16,1 km/h (3 Bft) 97,87 %
26.03.2023 16:42 9,2 C 8,9 C 5,6 C 89 % 1002,3 hPa 0,0 l/m 0 min 0 min 106 W/m 16,1 km/h (3 Bft) 100,00 %
26.03.2023 16:44 9,1 C 8,9 C 5,6 C 89 % 1002,3 hPa 0,0 l/m 0 min 0 min 100 W/m 25,7 km/h (4 Bft) 97,87 %
26.03.2023 16:46 9,1 C 8,9 C 5,6 C 88 % 1002,3 hPa 0,0 l/m 0 min 0 min 113 W/m 19,3 km/h (3 Bft) 100,00 %
26.03.2023 16:48 9,1 C 8,9 C 5,6 C 88 % 1002,4 hPa 0,0 l/m 0 min 0 min 131 W/m 16,1 km/h (3 Bft) 97,87 %
26.03.2023 16:50 9,1 C 8,9 C 5,6 C 88 % 1002,4 hPa 0,0 l/m 0 min 0 min 130 W/m 9,7 km/h (2 Bft) 97,87 %
26.03.2023 16:52 9,1 C 8,9 C 5,6 C 88 % 1002,4 hPa 0,0 l/m 0 min 0 min 106 W/m 12,9 km/h (3 Bft) 97,83 %
26.03.2023 16:54 9,1 C 8,9 C 5,6 C 88 % 1002,4 hPa 0,0 l/m 0 min 0 min 77 W/m 9,7 km/h (2 Bft) 97,87 %
26.03.2023 16:56 9,1 C 8,9 C 5,6 C 88 % 1002,5 hPa 0,0 l/m 0 min 0 min 68 W/m 12,9 km/h (3 Bft) 97,87 %
26.03.2023 16:58 9,1 C 8,9 C 5,6 C 88 % 1002,5 hPa 0,0 l/m 0 min 0 min 74 W/m 9,7 km/h (2 Bft) 95,74 %
26.03.2023 17:00 9,1 C 8,9 C 5,6 C 88 % 1002,5 hPa 0,0 l/m 0 min 0 min 83 W/m 9,7 km/h (2 Bft) 97,87 %
26.03.2023 17:02 9,1 C 8,9 C 5,6 C 88 % 1002,6 hPa 0,0 l/m 0 min 0 min 104 W/m 6,4 km/h (2 Bft) 53,33 %
26.03.2023 17:04 9,0 C 8,9 C 5,6 C 89 % 1002,6 hPa 0,0 l/m 0 min 0 min 106 W/m 9,7 km/h (2 Bft) 96,77 %
26.03.2023 17:06 9,0 C 8,9 C 5,6 C 89 % 1002,6 hPa 0,0 l/m 0 min 0 min 109 W/m 16,1 km/h (3 Bft) 97,83 %
26.03.2023 17:08 9,0 C 8,9 C 5,6 C 89 % 1002,6 hPa 0,0 l/m 0 min 0 min 119 W/m 16,1 km/h (3 Bft) 97,87 %
26.03.2023 17:10 9,0 C 8,9 C 5,6 C 89 % 1002,6 hPa 0,0 l/m 0 min 0 min 116 W/m 9,7 km/h (2 Bft) 97,87 %
26.03.2023 17:12 8,9 C 8,9 C 5,6 C 89 % 1002,6 hPa 0,0 l/m 0 min 0 min 114 W/m 19,3 km/h (3 Bft) 97,87 %
26.03.2023 17:14 8,9 C 8,9 C 5,6 C 89 % 1002,7 hPa 0,0 l/m 0 min 0 min 115 W/m 19,3 km/h (3 Bft) 97,87 %
26.03.2023 17:16 8,9 C 8,9 C 5,6 C 89 % 1002,7 hPa 0,0 l/m 0 min 0 min 112 W/m 12,9 km/h (3 Bft) 97,87 %
26.03.2023 17:18 8,9 C 8,9 C 5,6 C 89 % 1002,8 hPa 0,0 l/m 0 min 0 min 113 W/m 16,1 km/h (3 Bft) 93,48 %
26.03.2023 17:20 8,9 C 8,9 C 5,6 C 89 % 1002,8 hPa 0,0 l/m 0 min 0 min 123 W/m 12,9 km/h (3 Bft) 97,87 %
26.03.2023 17:22 8,9 C 8,9 C 5,6 C 89 % 1002,8 hPa 0,0 l/m 0 min 0 min 128 W/m 22,5 km/h (4 Bft) 95,74 %
26.03.2023 17:24 8,9 C 8,9 C 5,6 C 89 % 1002,8 hPa 0,0 l/m 0 min 0 min 128 W/m 16,1 km/h (3 Bft) 97,87 %
26.03.2023 17:26 8,9 C 8,9 C 5,6 C 89 % 1002,9 hPa 0,0 l/m 0 min 0 min 128 W/m 12,9 km/h (3 Bft) 97,87 %
26.03.2023 17:28 8,9 C 8,9 C 5,6 C 89 % 1002,9 hPa 0,0 l/m 0 min 0 min 125 W/m 16,1 km/h (3 Bft) 95,74 %
26.03.2023 17:30 8,9 C 8,9 C 5,6 C 89 % 1002,9 hPa 0,0 l/m 0 min 0 min 115 W/m 22,5 km/h (4 Bft) 95,74 %
26.03.2023 17:32 8,9 C 8,9 C 5,6 C 89 % 1002,9 hPa 0,0 l/m 0 min 0 min 118 W/m 9,7 km/h (2 Bft) 95,65 %
26.03.2023 17:34 8,9 C 8,9 C 5,6 C 89 % 1003,0 hPa 0,0 l/m 0 min 0 min 109 W/m 16,1 km/h (3 Bft) 95,74 %
26.03.2023 17:36 8,9 C 8,9 C 5,6 C 89 % 1003,0 hPa 0,0 l/m 0 min 0 min 90 W/m 19,3 km/h (3 Bft) 97,87 %
26.03.2023 17:38 8,9 C 8,3 C 5,6 C 89 % 1003,0 hPa 0,0 l/m 0 min 2 min 62 W/m 16,1 km/h (3 Bft) 91,49 %
26.03.2023 17:40 8,8 C 8,3 C 5,0 C 90 % 1003,0 hPa 0,0 l/m 0 min 0 min 54 W/m 16,1 km/h (3 Bft) 95,74 %
26.03.2023 17:42 8,8 C 8,3 C 5,0 C 90 % 1003,0 hPa 0,0 l/m 0 min 2 min 50 W/m 12,9 km/h (3 Bft) 97,87 %
26.03.2023 17:44 8,8 C 8,3 C 5,0 C 90 % 1003,1 hPa 0,0 l/m 0 min 0 min 46 W/m 22,5 km/h (4 Bft) 95,74 %
26.03.2023 17:46 8,8 C 7,8 C 5,0 C 90 % 1003,1 hPa 0,0 l/m 0 min 0 min 41 W/m 25,7 km/h (4 Bft) 97,83 %
26.03.2023 17:48 8,7 C 7,8 C 4,4 C 90 % 1003,2 hPa 0,0 l/m 0 min 0 min 45 W/m 32,2 km/h (5 Bft) 97,87 %
26.03.2023 17:50 8,7 C 7,8 C 4,4 C 90 % 1003,2 hPa 0,0 l/m 0 min 0 min 50 W/m 16,1 km/h (3 Bft) 95,74 %
26.03.2023 17:52 8,6 C 7,8 C 4,4 C 90 % 1003,3 hPa 0,0 l/m 0 min 2 min 40 W/m 16,1 km/h (3 Bft) 89,36 %
26.03.2023 17:54 8,6 C 7,8 C 4,4 C 91 % 1003,4 hPa 0,0 l/m 0 min 2 min 46 W/m 22,5 km/h (4 Bft) 89,36 %
26.03.2023 17:56 8,6 C 7,8 C 4,4 C 91 % 1003,4 hPa 0,0 l/m 0 min 2 min 50 W/m 16,1 km/h (3 Bft) 95,74 %
26.03.2023 17:58 8,5 C 7,8 C 4,4 C 91 % 1003,4 hPa 0,0 l/m 0 min 2 min 53 W/m 16,1 km/h (3 Bft) 95,74 %
26.03.2023 18:00 8,5 C 7,8 C 4,4 C 91 % 1003,4 hPa 0,0 l/m 0 min 2 min 59 W/m 22,5 km/h (4 Bft) 100,00 %
26.03.2023 18:02 8,4 C 7,8 C 4,4 C 91 % 1003,5 hPa 0,0 l/m 0 min 2 min 67 W/m 19,3 km/h (3 Bft) 100,00 %
26.03.2023 18:04 8,4 C 7,8 C 4,4 C 92 % 1003,5 hPa 0,0 l/m 0 min 2 min 75 W/m 16,1 km/h (3 Bft) 100,00 %
26.03.2023 18:07 8,4 C 7,8 C 4,4 C 92 % 1003,6 hPa 0,0 l/m 0 min 3 min 75 W/m 22,5 km/h (4 Bft) 100,00 %
26.03.2023 18:08 8,4 C 7,8 C 4,4 C 92 % 1003,6 hPa 0,0 l/m 0 min 1 min 70 W/m 9,7 km/h (2 Bft) 100,00 %
26.03.2023 18:12 8,3 C 7,8 C 4,4 C 92 % 1003,7 hPa 0,0 l/m 0 min 0 min 73 W/m 19,3 km/h (3 Bft) 96,08 %
26.03.2023 18:14 8,3 C 7,8 C 4,4 C 93 % 1003,7 hPa 0,0 l/m 0 min 0 min 74 W/m 19,3 km/h (3 Bft) 100,00 %
26.03.2023 18:16 8,3 C 7,8 C 4,4 C 93 % 1003,7 hPa 0,0 l/m 0 min 0 min 78 W/m 12,9 km/h (3 Bft) 100,00 %
26.03.2023 18:18 8,3 C 7,8 C 4,4 C 93 % 1003,8 hPa 0,0 l/m 0 min 0 min 80 W/m 9,7 km/h (2 Bft) 100,00 %
26.03.2023 18:20 8,3 C 7,8 C 4,4 C 93 % 1003,8 hPa 0,0 l/m 0 min 0 min 72 W/m 25,7 km/h (4 Bft) 100,00 %
26.03.2023 18:22 8,2 C 7,8 C 4,4 C 93 % 1003,9 hPa 0,0 l/m 0 min 0 min 64 W/m 22,5 km/h (4 Bft) 97,87 %
26.03.2023 18:24 8,2 C 7,8 C 4,4 C 93 % 1003,9 hPa 0,0 l/m 0 min 0 min 45 W/m 22,5 km/h (4 Bft) 100,00 %
26.03.2023 18:26 8,2 C 7,8 C 4,4 C 93 % 1003,9 hPa 0,0 l/m 0 min 0 min 25 W/m 16,1 km/h (3 Bft) 100,00 %
26.03.2023 18:28 8,2 C 7,2 C 4,4 C 93 % 1003,9 hPa 0,0 l/m 0 min 0 min 18 W/m 16,1 km/h (3 Bft) 100,00 %
26.03.2023 18:30 8,1 C 7,2 C 3,9 C 93 % 1004,0 hPa 0,0 l/m 0 min 0 min 16 W/m 22,5 km/h (4 Bft) 97,87 %
26.03.2023 18:32 8,1 C 7,2 C 3,9 C 94 % 1004,0 hPa 0,0 l/m 0 min 0 min 19 W/m 22,5 km/h (4 Bft) 97,83 %
26.03.2023 18:34 8,0 C 7,2 C 3,9 C 94 % 1004,1 hPa 0,0 l/m 0 min 0 min 23 W/m 22,5 km/h (4 Bft) 97,87 %
26.03.2023 18:36 8,0 C 7,2 C 3,9 C 94 % 1004,1 hPa 0,0 l/m 0 min 0 min 37 W/m 25,7 km/h (4 Bft) 97,87 %
26.03.2023 18:38 7,9 C 7,2 C 3,9 C 93 % 1004,2 hPa 0,0 l/m 0 min 2 min 44 W/m 22,5 km/h (4 Bft) 97,87 %
26.03.2023 18:40 7,9 C 7,2 C 3,9 C 93 % 1004,2 hPa 0,0 l/m 0 min 0 min 48 W/m 16,1 km/h (3 Bft) 97,87 %
26.03.2023 18:42 7,9 C 7,2 C 3,9 C 94 % 1004,3 hPa 0,0 l/m 0 min 0 min 54 W/m 22,5 km/h (4 Bft) 97,87 %
26.03.2023 18:44 7,8 C 7,2 C 3,9 C 94 % 1004,2 hPa 0,0 l/m 0 min 0 min 58 W/m 22,5 km/h (4 Bft) 97,87 %
26.03.2023 18:46 7,8 C 7,2 C 3,9 C 94 % 1004,3 hPa 0,0 l/m 0 min 0 min 63 W/m 25,7 km/h (4 Bft) 97,83 %
26.03.2023 18:48 7,8 C 7,2 C 3,9 C 94 % 1004,4 hPa 0,0 l/m 0 min 0 min 65 W/m 22,5 km/h (4 Bft) 97,87 %
26.03.2023 18:50 7,8 C 7,2 C 3,9 C 94 % 1004,5 hPa 0,0 l/m 0 min 0 min 58 W/m 12,9 km/h (3 Bft) 97,87 %
26.03.2023 18:52 7,8 C 7,2 C 4,4 C 94 % 1004,5 hPa 0,0 l/m 0 min 0 min 44 W/m 16,1 km/h (3 Bft) 97,87 %
26.03.2023 18:54 7,8 C 7,2 C 4,4 C 94 % 1004,6 hPa 0,0 l/m 0 min 0 min 34 W/m 16,1 km/h (3 Bft) 97,87 %
26.03.2023 18:56 7,8 C 7,2 C 4,4 C 94 % 1004,5 hPa 0,0 l/m 0 min 0 min 26 W/m 16,1 km/h (3 Bft) 97,87 %
26.03.2023 18:58 7,8 C 7,2 C 3,9 C 94 % 1004,7 hPa 0,0 l/m 0 min 0 min 22 W/m 19,3 km/h (3 Bft) 95,65 %
26.03.2023 19:00 7,8 C 7,2 C 3,9 C 94 % 1004,6 hPa 0,0 l/m 0 min 0 min 23 W/m 32,2 km/h (5 Bft) 97,87 %
26.03.2023 19:02 7,8 C 7,2 C 3,9 C 94 % 1004,7 hPa 0,0 l/m 0 min 0 min 25 W/m 12,9 km/h (3 Bft) 97,87 %
26.03.2023 19:04 7,8 C 7,2 C 3,9 C 93 % 1004,7 hPa 0,0 l/m 0 min 0 min 21 W/m 16,1 km/h (3 Bft) 97,87 %
26.03.2023 19:06 7,8 C 7,2 C 3,9 C 93 % 1004,9 hPa 0,0 l/m 0 min 0 min 18 W/m 12,9 km/h (3 Bft) 94,92 %
26.03.2023 19:08 7,7 C 7,2 C 3,9 C 93 % 1004,9 hPa 0,0 l/m 0 min 0 min 18 W/m 6,4 km/h (2 Bft) 97,14 %
26.03.2023 19:10 7,7 C 7,2 C 3,9 C 93 % 1004,9 hPa 0,0 l/m 0 min 0 min 19 W/m 25,7 km/h (4 Bft) 97,87 %
26.03.2023 19:12 7,8 C 7,2 C 4,4 C 93 % 1004,9 hPa 0,0 l/m 0 min 0 min 19 W/m 19,3 km/h (3 Bft) 97,83 %
26.03.2023 19:14 7,8 C 7,2 C 4,4 C 93 % 1005,0 hPa 0,0 l/m 0 min 0 min 19 W/m 12,9 km/h (3 Bft) 97,87 %
26.03.2023 19:16 7,8 C 7,2 C 4,4 C 93 % 1005,0 hPa 0,0 l/m 0 min 0 min 18 W/m 25,7 km/h (4 Bft) 97,87 %
26.03.2023 19:18 7,8 C 7,2 C 4,4 C 93 % 1005,1 hPa 0,0 l/m 0 min 0 min 17 W/m 12,9 km/h (3 Bft) 100,00 %
26.03.2023 19:20 7,8 C 7,2 C 4,4 C 93 % 1005,1 hPa 0,0 l/m 0 min 0 min 14 W/m 12,9 km/h (3 Bft) 95,74 %
26.03.2023 19:22 7,8 C 7,2 C 4,4 C 93 % 1005,1 hPa 0,0 l/m 0 min 0 min 14 W/m 16,1 km/h (3 Bft) 97,87 %
26.03.2023 19:24 7,8 C 7,2 C 4,4 C 93 % 1005,2 hPa 0,0 l/m 0 min 0 min 12 W/m 12,9 km/h (3 Bft) 97,87 %
26.03.2023 19:26 7,8 C 7,2 C 4,4 C 93 % 1005,2 hPa 0,0 l/m 0 min 0 min 12 W/m 9,7 km/h (2 Bft) 97,83 %
26.03.2023 19:28 7,8 C 7,2 C 4,4 C 93 % 1005,4 hPa 0,0 l/m 0 min 0 min 11 W/m 22,5 km/h (4 Bft) 97,87 %
26.03.2023 19:30 7,8 C 7,2 C 4,4 C 93 % 1005,4 hPa 0,0 l/m 0 min 0 min 11 W/m 29,0 km/h (5 Bft) 97,87 %
26.03.2023 19:32 7,8 C 7,2 C 4,4 C 93 % 1005,4 hPa 0,0 l/m 0 min 0 min 10 W/m 22,5 km/h (4 Bft) 97,87 %
26.03.2023 19:34 7,7 C 7,2 C 4,4 C 93 % 1005,5 hPa 0,0 l/m 0 min 0 min 7 W/m 22,5 km/h (4 Bft) 97,87 %
26.03.2023 19:36 7,7 C 7,2 C 4,4 C 93 % 1005,5 hPa 0,0 l/m 0 min 0 min 5 W/m 16,1 km/h (3 Bft) 95,74 %
26.03.2023 19:38 7,6 C 7,2 C 4,4 C 92 % 1005,6 hPa 0,0 l/m 0 min 0 min 5 W/m 19,3 km/h (3 Bft) 97,87 %
26.03.2023 19:40 7,6 C 7,2 C 4,4 C 92 % 1005,7 hPa 0,0 l/m 0 min 0 min 4 W/m 29,0 km/h (5 Bft) 97,83 %
26.03.2023 19:42 7,6 C 7,2 C 4,4 C 92 % 1005,7 hPa 0,0 l/m 0 min 0 min 0 W/m 22,5 km/h (4 Bft) 97,87 %
26.03.2023 19:44 7,5 C 7,2 C 4,4 C 92 % 1005,7 hPa 0,0 l/m 0 min 0 min 0 W/m 19,3 km/h (3 Bft) 95,74 %
26.03.2023 19:46 7,5 C 7,2 C 3,9 C 91 % 1005,8 hPa 0,0 l/m 0 min 0 min 0 W/m 19,3 km/h (3 Bft) 93,62 %
26.03.2023 19:48 7,5 C 7,2 C 3,9 C 91 % 1005,8 hPa 0,0 l/m 0 min 0 min 0 W/m 16,1 km/h (3 Bft) 97,87 %
26.03.2023 19:50 7,5 C 7,2 C 3,9 C 91 % 1005,8 hPa 0,0 l/m 0 min 0 min 0 W/m 19,3 km/h (3 Bft) 85,11 %
26.03.2023 19:52 7,4 C 6,7 C 3,9 C 91 % 1005,9 hPa 0,0 l/m 0 min 0 min 5 W/m 19,3 km/h (3 Bft) 71,11 %
26.03.2023 19:54 7,4 C 6,7 C 3,9 C 91 % 1005,9 hPa 0,0 l/m 0 min 0 min 8 W/m 29,0 km/h (5 Bft) 89,36 %
26.03.2023 19:56 7,4 C 6,7 C 3,9 C 90 % 1006,0 hPa 0,0 l/m 0 min 0 min 11 W/m 12,9 km/h (3 Bft) 91,49 %
26.03.2023 19:58 7,4 C 6,7 C 3,9 C 90 % 1006,1 hPa 0,0 l/m 0 min 0 min 11 W/m 32,2 km/h (5 Bft) 82,98 %
26.03.2023 20:00 7,4 C 6,7 C 3,9 C 90 % 1006,1 hPa 0,0 l/m 0 min 0 min 8 W/m 25,7 km/h (4 Bft) 93,62 %
26.03.2023 20:02 7,4 C 6,7 C 3,9 C 89 % 1006,2 hPa 0,0 l/m 0 min 0 min 7 W/m 22,5 km/h (4 Bft) 97,87 %
26.03.2023 20:04 7,3 C 6,7 C 3,9 C 89 % 1006,2 hPa 0,0 l/m 0 min 0 min 2 W/m 22,5 km/h (4 Bft) 97,92 %
26.03.2023 20:06 7,3 C 6,7 C 3,9 C 89 % 1006,3 hPa 0,0 l/m 0 min 0 min 0 W/m 19,3 km/h (3 Bft) 96,67 %
26.03.2023 20:08 7,3 C 6,7 C 3,9 C 88 % 1006,3 hPa 0,0 l/m 0 min 0 min 0 W/m 16,1 km/h (3 Bft) 97,14 %
26.03.2023 20:10 7,3 C 6,7 C 3,9 C 88 % 1006,4 hPa 0,0 l/m 0 min 0 min 0 W/m 19,3 km/h (3 Bft) 97,87 %
26.03.2023 20:12 7,3 C 6,7 C 3,9 C 88 % 1006,4 hPa 0,0 l/m 0 min 0 min 0 W/m 12,9 km/h (3 Bft) 97,87 %
26.03.2023 20:14 7,3 C 6,7 C 3,9 C 88 % 1006,5 hPa 0,0 l/m 0 min 0 min 0 W/m 19,3 km/h (3 Bft) 97,87 %
26.03.2023 20:16 7,3 C 6,7 C 3,9 C 88 % 1006,5 hPa 0,0 l/m 0 min 0 min 0 W/m 25,7 km/h (4 Bft) 95,65 %
26.03.2023 20:18 7,2 C 6,7 C 3,9 C 88 % 1006,5 hPa 0,0 l/m 0 min 0 min 0 W/m 16,1 km/h (3 Bft) 97,87 %
26.03.2023 20:20 7,2 C 6,7 C 3,9 C 88 % 1006,5 hPa 0,0 l/m 0 min 0 min 0 W/m 22,5 km/h (4 Bft) 97,87 %
26.03.2023 20:22 7,2 C 6,7 C 3,9 C 88 % 1006,6 hPa 0,0 l/m 0 min 0 min 0 W/m 19,3 km/h (3 Bft) 95,74 %
26.03.2023 20:24 7,2 C 6,7 C 3,9 C 87 % 1006,6 hPa 0,0 l/m 0 min 0 min 0 W/m 32,2 km/h (5 Bft) 95,74 %
26.03.2023 20:26 7,2 C 6,7 C 3,9 C 87 % 1006,7 hPa 0,0 l/m 0 min 0 min 0 W/m 16,1 km/h (3 Bft) 97,87 %
26.03.2023 20:28 7,2 C 6,7 C 3,3 C 87 % 1006,8 hPa 0,0 l/m 0 min 0 min 0 W/m 19,3 km/h (3 Bft) 95,74 %
26.03.2023 20:30 7,2 C 6,7 C 3,3 C 87 % 1006,8 hPa 0,0 l/m 0 min 0 min 0 W/m 19,3 km/h (3 Bft) 95,65 %
26.03.2023 20:32 7,1 C 6,7 C 3,3 C 87 % 1006,9 hPa 0,0 l/m 0 min 0 min 0 W/m 19,3 km/h (3 Bft) 93,62 %
26.03.2023 20:34 7,1 C 6,7 C 3,3 C 86 % 1006,9 hPa 0,0 l/m 0 min 0 min 0 W/m 25,7 km/h (4 Bft) 97,87 %
26.03.2023 20:36 7,1 C 6,7 C 3,3 C 86 % 1007,0 hPa 0,0 l/m 0 min 0 min 0 W/m 16,1 km/h (3 Bft) 95,74 %
26.03.2023 20:38 7,0 C 6,1 C 3,3 C 86 % 1007,0 hPa 0,0 l/m 0 min 0 min 0 W/m 29,0 km/h (5 Bft) 97,87 %
26.03.2023 20:40 7,0 C 6,1 C 3,3 C 86 % 1007,1 hPa 0,0 l/m 0 min 0 min 0 W/m 22,5 km/h (4 Bft) 95,74 %
26.03.2023 20:42 6,9 C 6,1 C 3,3 C 85 % 1007,1 hPa 0,0 l/m 0 min 0 min 0 W/m 32,2 km/h (5 Bft) 95,65 %
26.03.2023 20:44 6,9 C 6,1 C 3,3 C 85 % 1007,1 hPa 0,0 l/m 0 min 0 min 0 W/m 16,1 km/h (3 Bft) 97,87 %
26.03.2023 20:46 6,9 C 6,1 C 3,3 C 85 % 1007,2 hPa 0,0 l/m 0 min 0 min 0 W/m 9,7 km/h (2 Bft) 97,87 %
26.03.2023 20:48 6,9 C 6,1 C 3,3 C 85 % 1007,2 hPa 0,0 l/m 0 min 0 min 0 W/m 16,1 km/h (3 Bft) 95,83 %
26.03.2023 20:50 6,9 C 6,1 C 3,3 C 85 % 1007,2 hPa 0,0 l/m 0 min 0 min 0 W/m 16,1 km/h (3 Bft) 95,83 %
26.03.2023 20:52 6,9 C 6,1 C 3,3 C 85 % 1007,3 hPa 0,0 l/m 0 min 0 min 0 W/m 35,4 km/h (5 Bft) 97,87 %
26.03.2023 20:54 6,8 C 6,1 C 3,3 C 85 % 1007,4 hPa 0,0 l/m 0 min 0 min 0 W/m 16,1 km/h (3 Bft) 97,87 %
26.03.2023 20:56 6,8 C 6,1 C 3,3 C 85 % 1007,4 hPa 0,0 l/m 0 min 0 min 0 W/m 22,5 km/h (4 Bft) 97,83 %
26.03.2023 20:58 6,8 C 6,1 C 3,3 C 84 % 1007,4 hPa 0,0 l/m 0 min 0 min 0 W/m 16,1 km/h (3 Bft) 94,59 %
26.03.2023 21:00 6,8 C 6,1 C 3,3 C 84 % 1007,5 hPa 0,0 l/m 0 min 0 min 0 W/m 19,3 km/h (3 Bft) 96,36 %
26.03.2023 21:02 6,8 C 6,1 C 3,3 C 84 % 1007,5 hPa 0,0 l/m 0 min 0 min 0 W/m 25,7 km/h (4 Bft) 96,00 %
26.03.2023 21:04 6,8 C 6,1 C 3,3 C 84 % 1007,6 hPa 0,0 l/m 0 min 0 min 0 W/m 12,9 km/h (3 Bft) 95,92 %
26.03.2023 21:06 6,8 C 6,1 C 3,3 C 84 % 1007,6 hPa 0,0 l/m 0 min 0 min 0 W/m 19,3 km/h (3 Bft) 93,62 %
26.03.2023 21:08 6,8 C 6,1 C 3,3 C 84 % 1007,6 hPa 0,0 l/m 0 min 0 min 0 W/m 22,5 km/h (4 Bft) 100,00 %
26.03.2023 21:10 6,7 C 6,1 C 3,3 C 83 % 1007,7 hPa 0,0 l/m 0 min 0 min 0 W/m 22,5 km/h (4 Bft) 97,87 %
26.03.2023 21:12 6,7 C 6,1 C 3,3 C 83 % 1007,8 hPa 0,0 l/m 0 min 0 min 0 W/m 25,7 km/h (4 Bft) 95,74 %
26.03.2023 21:14 6,7 C 6,1 C 3,3 C 83 % 1007,8 hPa 0,0 l/m 0 min 0 min 0 W/m 25,7 km/h (4 Bft) 91,49 %
26.03.2023 21:16 6,7 C 6,1 C 3,3 C 83 % 1007,9 hPa 0,0 l/m 0 min 0 min 0 W/m 16,1 km/h (3 Bft) 95,65 %
26.03.2023 21:18 6,7 C 6,1 C 2,8 C 83 % 1007,9 hPa 0,0 l/m 0 min 0 min 0 W/m 19,3 km/h (3 Bft) 89,36 %
26.03.2023 21:20 6,7 C 6,1 C 2,8 C 83 % 1008,0 hPa 0,0 l/m 0 min 0 min 0 W/m 19,3 km/h (3 Bft) 93,62 %
26.03.2023 21:22 6,7 C 6,1 C 2,8 C 83 % 1008,0 hPa 0,0 l/m 0 min 0 min 0 W/m 16,1 km/h (3 Bft) 95,74 %
26.03.2023 21:24 6,7 C 6,1 C 2,8 C 83 % 1008,1 hPa 0,0 l/m 0 min 0 min 0 W/m 16,1 km/h (3 Bft) 85,11 %
26.03.2023 21:26 6,7 C 6,1 C 2,8 C 83 % 1008,1 hPa 0,0 l/m 0 min 0 min 0 W/m 19,3 km/h (3 Bft) 54,05 %
26.03.2023 21:28 6,7 C 6,1 C 2,8 C 83 % 1008,0 hPa 0,0 l/m 0 min 0 min 0 W/m 19,3 km/h (3 Bft) 93,62 %
26.03.2023 21:30 6,6 C 6,1 C 2,8 C 83 % 1008,1 hPa 0,0 l/m 0 min 0 min 0 W/m 9,7 km/h (2 Bft) 93,75 %
26.03.2023 21:32 6,6 C 6,1 C 2,8 C 83 % 1008,1 hPa 0,0 l/m 0 min 0 min 0 W/m 25,7 km/h (4 Bft) 93,62 %
26.03.2023 21:34 6,6 C 6,1 C 2,8 C 83 % 1008,3 hPa 0,0 l/m 0 min 0 min 0 W/m 22,5 km/h (4 Bft) 95,74 %
26.03.2023 21:36 6,6 C 6,1 C 2,8 C 82 % 1008,3 hPa 0,0 l/m 0 min 0 min 0 W/m 25,7 km/h (4 Bft) 91,49 %
26.03.2023 21:38 6,5 C 6,1 C 2,8 C 82 % 1008,3 hPa 0,0 l/m 0 min 0 min 0 W/m 32,2 km/h (5 Bft) 97,87 %
26.03.2023 21:40 6,5 C 6,1 C 2,8 C 82 % 1008,4 hPa 0,0 l/m 0 min 0 min 0 W/m 29,0 km/h (5 Bft) 97,87 %
26.03.2023 21:42 6,5 C 6,1 C 2,8 C 82 % 1008,5 hPa 0,0 l/m 0 min 0 min 0 W/m 22,5 km/h (4 Bft) 95,74 %
26.03.2023 21:44 6,5 C 6,1 C 2,8 C 81 % 1008,5 hPa 0,0 l/m 0 min 0 min 0 W/m 19,3 km/h (3 Bft) 97,83 %
26.03.2023 21:46 6,5 C 5,6 C 2,8 C 81 % 1008,4 hPa 0,0 l/m 0 min 0 min 0 W/m 16,1 km/h (3 Bft) 100,00 %
26.03.2023 21:48 6,4 C 5,6 C 2,8 C 81 % 1008,5 hPa 0,0 l/m 0 min 0 min 0 W/m 35,4 km/h (5 Bft) 100,00 %
26.03.2023 21:50 6,4 C 5,6 C 2,8 C 81 % 1008,5 hPa 0,0 l/m 0 min 0 min 0 W/m 22,5 km/h (4 Bft) 95,74 %
26.03.2023 21:52 6,4 C 5,6 C 2,8 C 81 % 1008,6 hPa 0,0 l/m 0 min 0 min 0 W/m 22,5 km/h (4 Bft) 97,87 %
26.03.2023 21:54 6,4 C 5,6 C 2,8 C 81 % 1008,6 hPa 0,0 l/m 0 min 0 min 0 W/m 16,1 km/h (3 Bft) 97,87 %
26.03.2023 21:56 6,4 C 5,6 C 2,8 C 81 % 1008,7 hPa 0,0 l/m 0 min 0 min 0 W/m 25,7 km/h (4 Bft) 97,83 %
26.03.2023 21:58 6,4 C 5,6 C 2,8 C 81 % 1008,7 hPa 0,0 l/m 0 min 0 min 0 W/m 9,7 km/h (2 Bft) 97,87 %
26.03.2023 22:00 6,4 C 5,6 C 2,8 C 81 % 1008,7 hPa 0,0 l/m 0 min 0 min 0 W/m 25,7 km/h (4 Bft) 100,00 %
26.03.2023 22:02 6,4 C 5,6 C 2,8 C 82 % 1008,7 hPa 0,0 l/m 0 min 0 min 0 W/m 25,7 km/h (4 Bft) 100,00 %
26.03.2023 22:04 6,3 C 5,6 C 2,8 C 81 % 1008,8 hPa 0,0 l/m 0 min 0 min 0 W/m 35,4 km/h (5 Bft) 100,00 %
26.03.2023 22:06 6,3 C 5,6 C 2,8 C 81 % 1008,9 hPa 0,0 l/m 0 min 0 min 0 W/m 35,4 km/h (5 Bft) 100,00 %
26.03.2023 22:08 6,3 C 5,6 C 2,8 C 80 % 1008,9 hPa 0,0 l/m 0 min 0 min 0 W/m 25,7 km/h (4 Bft) 100,00 %
26.03.2023 22:10 6,2 C 5,6 C 2,8 C 80 % 1008,9 hPa 0,0 l/m 0 min 0 min 0 W/m 19,3 km/h (3 Bft) 100,00 %
26.03.2023 22:12 6,2 C 5,6 C 2,8 C 80 % 1009,0 hPa 0,0 l/m 0 min 0 min 0 W/m 19,3 km/h (3 Bft) 97,87 %
26.03.2023 22:14 6,2 C 5,6 C 2,2 C 79 % 1009,0 hPa 0,0 l/m 0 min 0 min 0 W/m 25,7 km/h (4 Bft) 100,00 %
26.03.2023 22:16 6,2 C 5,6 C 2,2 C 79 % 1009,1 hPa 0,0 l/m 0 min 0 min 0 W/m 25,7 km/h (4 Bft) 100,00 %
26.03.2023 22:18 6,2 C 5,6 C 2,2 C 79 % 1009,1 hPa 0,0 l/m 0 min 0 min 0 W/m 25,7 km/h (4 Bft) 100,00 %
26.03.2023 22:20 6,1 C 5,6 C 2,2 C 78 % 1009,2 hPa 0,0 l/m 0 min 0 min 0 W/m 25,7 km/h (4 Bft) 100,00 %
26.03.2023 22:22 6,1 C 5,6 C 2,2 C 78 % 1009,3 hPa 0,0 l/m 0 min 0 min 0 W/m 35,4 km/h (5 Bft) 100,00 %
26.03.2023 22:24 6,1 C 5,6 C 2,2 C 78 % 1009,2 hPa 0,0 l/m 0 min 0 min 0 W/m 29,0 km/h (5 Bft) 100,00 %
26.03.2023 22:26 6,1 C 5,6 C 2,2 C 77 % 1009,4 hPa 0,0 l/m 0 min 0 min 0 W/m 25,7 km/h (4 Bft) 100,00 %
26.03.2023 22:28 6,1 C 5,6 C 2,2 C 77 % 1009,3 hPa 0,0 l/m 0 min 0 min 0 W/m 22,5 km/h (4 Bft) 100,00 %
26.03.2023 22:30 6,1 C 5,6 C 2,2 C 77 % 1009,4 hPa 0,0 l/m 0 min 0 min 0 W/m 19,3 km/h (3 Bft) 100,00 %
26.03.2023 22:32 6,1 C 5,6 C 2,2 C 78 % 1009,4 hPa 0,0 l/m 0 min 0 min 0 W/m 25,7 km/h (4 Bft) 100,00 %
26.03.2023 22:34 6,1 C 5,6 C 2,2 C 78 % 1009,4 hPa 0,0 l/m 0 min 0 min 0 W/m 19,3 km/h (3 Bft) 100,00 %
26.03.2023 22:36 6,0 C 5,6 C 2,2 C 78 % 1009,4 hPa 0,0 l/m 0 min 0 min 0 W/m 29,0 km/h (5 Bft) 100,00 %
26.03.2023 22:38 6,0 C 5,6 C 2,2 C 77 % 1009,5 hPa 0,0 l/m 0 min 0 min 0 W/m 25,7 km/h (4 Bft) 100,00 %
26.03.2023 22:40 6,0 C 5,6 C 2,2 C 77 % 1009,5 hPa 0,0 l/m 0 min 0 min 0 W/m 19,3 km/h (3 Bft) 100,00 %
26.03.2023 22:42 5,9 C 5,6 C 2,2 C 77 % 1009,6 hPa 0,0 l/m 0 min 0 min 0 W/m 25,7 km/h (4 Bft) 97,22 %
26.03.2023 22:44 5,9 C 5,6 C 2,2 C 77 % 1009,7 hPa 0,0 l/m 0 min 0 min 0 W/m 29,0 km/h (5 Bft) 100,00 %
26.03.2023 22:46 5,9 C 5,6 C 2,2 C 77 % 1009,7 hPa 0,0 l/m 0 min 0 min 0 W/m 25,7 km/h (4 Bft) 100,00 %
26.03.2023 22:48 5,9 C 5,6 C 2,2 C 77 % 1009,7 hPa 0,0 l/m 0 min 0 min 0 W/m 16,1 km/h (3 Bft) 100,00 %
26.03.2023 22:50 5,9 C 5,6 C 2,2 C 77 % 1009,8 hPa 0,0 l/m 0 min 0 min 0 W/m 19,3 km/h (3 Bft) 100,00 %
26.03.2023 22:52 5,9 C 5,0 C 2,2 C 77 % 1009,8 hPa 0,0 l/m 0 min 0 min 0 W/m 19,3 km/h (3 Bft) 98,21 %
26.03.2023 22:54 5,9 C 5,0 C 2,2 C 77 % 1009,9 hPa 0,0 l/m 0 min 0 min 0 W/m 25,7 km/h (4 Bft) 100,00 %
26.03.2023 22:56 5,8 C 5,0 C 2,2 C 77 % 1009,9 hPa 0,0 l/m 0 min 0 min 0 W/m 19,3 km/h (3 Bft) 95,74 %
26.03.2023 22:58 5,8 C 5,0 C 2,2 C 77 % 1010,0 hPa 0,0 l/m 0 min 0 min 0 W/m 19,3 km/h (3 Bft) 97,87 %
26.03.2023 23:00 5,8 C 5,0 C 2,2 C 77 % 1010,0 hPa 0,0 l/m 0 min 0 min 0 W/m 35,4 km/h (5 Bft) 97,87 %
26.03.2023 23:02 5,8 C 5,0 C 1,7 C 77 % 1010,1 hPa 0,0 l/m 0 min 0 min 0 W/m 19,3 km/h (3 Bft) 97,37 %
26.03.2023 23:04 5,8 C 5,0 C 1,7 C 77 % 1010,1 hPa 0,0 l/m 0 min 0 min 0 W/m 16,1 km/h (3 Bft) 95,74 %
26.03.2023 23:06 5,8 C 5,0 C 1,7 C 77 % 1010,2 hPa 0,0 l/m 0 min 0 min 0 W/m 25,7 km/h (4 Bft) 93,22 %
26.03.2023 23:08 5,8 C 5,0 C 1,7 C 77 % 1010,2 hPa 0,0 l/m 0 min 0 min 0 W/m 25,7 km/h (4 Bft) 91,30 %
26.03.2023 23:10 5,7 C 5,0 C 1,7 C 77 % 1010,2 hPa 0,0 l/m 0 min 0 min 0 W/m 19,3 km/h (3 Bft) 91,67 %
26.03.2023 23:12 5,7 C 5,0 C 1,7 C 76 % 1010,2 hPa 0,0 l/m 0 min 0 min 0 W/m 22,5 km/h (4 Bft) 95,65 %
26.03.2023 23:14 5,7 C 5,0 C 1,7 C 77 % 1010,3 hPa 0,0 l/m 0 min 0 min 0 W/m 22,5 km/h (4 Bft) 95,74 %
26.03.2023 23:16 5,7 C 5,0 C 1,7 C 77 % 1010,3 hPa 0,0 l/m 0 min 0 min 0 W/m 25,7 km/h (4 Bft) 91,67 %
26.03.2023 23:18 5,6 C 5,0 C 1,7 C 77 % 1010,3 hPa 0,0 l/m 0 min 0 min 0 W/m 25,7 km/h (4 Bft) 95,65 %
26.03.2023 23:20 5,6 C 5,0 C 1,7 C 77 % 1010,4 hPa 0,0 l/m 0 min 0 min 0 W/m 29,0 km/h (5 Bft) 95,74 %
26.03.2023 23:22 5,6 C 5,0 C 1,7 C 77 % 1010,5 hPa 0,0 l/m 0 min 0 min 0 W/m 16,1 km/h (3 Bft) 95,74 %
26.03.2023 23:24 5,6 C 5,0 C 1,7 C 76 % 1010,4 hPa 0,0 l/m 0 min 0 min 0 W/m 19,3 km/h (3 Bft) 95,74 %
26.03.2023 23:26 5,6 C 5,0 C 1,7 C 76 % 1010,5 hPa 0,0 l/m 0 min 0 min 0 W/m 16,1 km/h (3 Bft) 93,62 %
26.03.2023 23:28 5,5 C 5,0 C 1,7 C 77 % 1010,6 hPa 0,0 l/m 0 min 0 min 0 W/m 25,7 km/h (4 Bft) 91,49 %
26.03.2023 23:30 5,5 C 5,0 C 1,7 C 76 % 1010,6 hPa 0,0 l/m 0 min 0 min 0 W/m 22,5 km/h (4 Bft) 93,62 %
26.03.2023 23:32 5,4 C 5,0 C 1,7 C 76 % 1010,7 hPa 0,0 l/m 0 min 0 min 0 W/m 16,1 km/h (3 Bft) 93,48 %
26.03.2023 23:34 5,4 C 4,4 C 1,7 C 76 % 1010,7 hPa 0,0 l/m 0 min 0 min 0 W/m 22,5 km/h (4 Bft) 93,62 %
26.03.2023 23:36 5,3 C 4,4 C 1,7 C 76 % 1010,8 hPa 0,0 l/m 0 min 0 min 0 W/m 22,5 km/h (4 Bft) 93,62 %
26.03.2023 23:38 5,3 C 4,4 C 1,7 C 76 % 1010,9 hPa 0,0 l/m 0 min 0 min 0 W/m 32,2 km/h (5 Bft) 95,74 %
26.03.2023 23:40 5,3 C 4,4 C 1,1 C 76 % 1010,9 hPa 0,0 l/m 0 min 0 min 0 W/m 32,2 km/h (5 Bft) 95,74 %
26.03.2023 23:42 5,3 C 4,4 C 1,1 C 76 % 1011,0 hPa 0,0 l/m 0 min 0 min 0 W/m 25,7 km/h (4 Bft) 95,74 %
26.03.2023 23:44 5,3 C 4,4 C 1,1 C 76 % 1011,0 hPa 0,0 l/m 0 min 0 min 0 W/m 25,7 km/h (4 Bft) 93,48 %
26.03.2023 23:46 5,2 C 4,4 C 1,1 C 76 % 1011,1 hPa 0,0 l/m 0 min 0 min 0 W/m 19,3 km/h (3 Bft) 95,74 %
26.03.2023 23:48 5,2 C 4,4 C 1,1 C 76 % 1011,1 hPa 0,0 l/m 0 min 0 min 0 W/m 29,0 km/h (5 Bft) 85,11 %
26.03.2023 23:50 5,2 C 4,4 C 1,1 C 76 % 1011,1 hPa 0,0 l/m 0 min 0 min 0 W/m 29,0 km/h (5 Bft) 42,31 %
26.03.2023 23:52 5,2 C 4,4 C 1,1 C 76 % 1011,2 hPa 0,0 l/m 0 min 0 min 0 W/m 19,3 km/h (3 Bft) 97,87 %
26.03.2023 23:54 5,1 C 4,4 C 1,1 C 76 % 1011,2 hPa 0,0 l/m 0 min 0 min 0 W/m 25,7 km/h (4 Bft) 97,87 %
26.03.2023 23:56 5,1 C 4,4 C 1,1 C 76 % 1011,3 hPa 0,0 l/m 0 min 0 min 0 W/m 22,5 km/h (4 Bft) 96,23 %
26.03.2023 23:58 5,1 C 4,4 C 1,1 C 76 % 1011,3 hPa 0,0 l/m 0 min 0 min 0 W/m 16,1 km/h (3 Bft) 93,62 %
_ Min-Zeit 23:54 23:34 23:40 23:12 13:06 - - - - 03:48 23:50
Minimum _ 5,1 C 4,4 C 1,1 C 76 % 1001,6 hPa - - - - 0,0 km/h (0 Bft) 42,31 %
_ Max-Zeit 16:10 16:02 16:20 10:34 23:56 06:08 00:00 06:12 14:58 20:52 01:02
Maximum _ 9,2 C 10,6 C 5,6 C 97 % 1011,3 hPa 0,2 l/m 0 min 4 min 279 W/m 35,4 km/h
N-NW (5 Bft)
100,00 %
Durchschnitt _ 7,6 C 7,2 C 3,8 C 91 % 1005,0 hPa #7,0 l/m #0 min. #6:42 h 97 W/m 12,2 km/h (2 Bft) 96,81 %
© 2023 W. Hausmann